GFSWCAN_sfc_wetblb_096.txt.gz
Wetbulb
54.76 55.17 55.41 55.47 55.65 55.65 56.33 53.82 52.77 52.77 53.04 53.72 54.48 54.89 55.38 55.30 55.19 56.87 58.65 59.77 57.04 53.43 54.46 53.10 52.37 50.73 50.53 49.88 46.74 49.52 47.61 48.06 47.44 43.69 44.15 43.04 41.92 42.81 39.48 42.13 41.76 41.67 40.39 40.46 41.27 38.19 35.91 48.75 47.27 43.22 48.90 51.51 51.13 50.21
53.89 54.32 54.74 55.03 55.11 55.45 56.09 53.26 52.40 52.41 52.77 52.93 54.17 54.60 54.91 55.15 54.88 53.38 57.82 59.49 58.93 55.17 54.79 56.77 56.23 55.31 53.82 53.50 51.89 51.00 49.39 47.79 51.14 47.50 47.11 47.92 43.52 44.07 42.26 39.63 44.91 40.06 44.09 43.09 42.85 44.44 47.34 49.62 48.46 51.00 50.79 50.03 48.90 48.50
53.54 53.20 53.44 54.36 54.79 55.07 55.95 53.43 51.93 52.27 52.64 52.54 53.43 54.29 54.72 54.88 54.52 53.52 57.30 58.14 58.03 54.73 54.56 54.79 53.77 56.76 58.49 56.44 57.37 50.63 51.93 51.52 50.60 52.30 49.43 47.77 41.90 45.67 41.24 41.82 42.97 45.02 46.35 42.48 42.35 45.98 46.42 48.64 49.39 49.95 49.16 48.51 49.05 49.21
53.46 53.19 53.16 53.41 54.48 54.83 55.65 53.59 51.76 51.87 52.10 52.37 52.85 53.69 54.35 54.31 53.35 52.83 58.24 58.47 57.71 55.32 50.17 51.10 57.75 55.03 57.42 57.33 56.18 56.20 54.52 52.45 52.22 50.61 47.18 46.24 43.78 46.94 44.20 44.82 44.52 47.16 46.19 44.05 43.98 46.21 46.51 48.75 49.70 50.01 49.23 48.87 48.41 48.94
53.22 53.12 52.96 52.86 53.76 54.25 55.53 53.08 51.77 51.71 51.83 51.95 52.21 53.18 53.71 53.67 52.52 57.60 59.63 59.21 59.50 54.61 50.48 51.45 55.39 56.22 56.51 55.76 54.32 54.32 53.94 51.31 50.51 48.07 44.92 43.74 48.23 45.91 47.57 44.91 43.52 46.58 45.37 43.62 42.37 46.69 47.53 46.90 50.33 50.92 49.68 48.88 49.01 48.54
52.82 52.96 52.84 52.77 53.17 54.03 54.97 52.41 51.81 51.81 51.60 51.54 51.85 52.75 53.10 52.95 51.54 57.63 54.07 59.02 59.77 57.66 53.04 47.55 54.70 54.29 54.84 55.07 54.14 53.28 52.75 50.18 48.87 46.96 45.82 46.48 47.49 45.17 41.44 40.06 45.07 48.44 49.16 49.51 46.64 49.11 48.90 49.88 49.73 50.05 49.52 49.36 49.66 49.28
52.68 52.96 52.66 52.73 53.07 53.91 53.95 51.62 51.66 51.51 51.33 51.02 51.29 52.42 52.83 52.50 56.34 54.38 52.98 55.41 53.28 58.03 52.76 49.17 48.71 53.82 54.45 54.41 54.15 52.55 53.08 47.97 47.77 44.68 42.98 42.90 44.20 43.69 38.50 37.87 43.46 45.70 47.76 48.50 48.88 49.09 46.93 48.35 47.45 49.54 49.27 49.47 48.28 49.52
52.44 52.48 52.51 52.69 53.21 54.47 52.86 51.47 51.54 51.29 50.75 51.08 51.76 52.25 52.45 52.08 51.96 55.23 57.63 54.96 56.35 56.19 55.10 49.91 48.18 50.22 54.43 51.40 48.68 52.38 49.44 49.93 47.53 43.30 43.87 41.94 42.48 41.09 36.20 42.09 45.50 47.08 47.70 47.76 48.76 49.33 50.03 50.60 49.87 49.69 50.11 50.02 48.90 48.50
52.20 52.33 52.43 52.59 53.28 54.13 51.81 51.50 51.77 51.23 51.09 51.28 52.15 52.41 55.87 55.77 56.05 56.37 54.85 54.66 59.65 55.65 51.73 51.47 46.92 43.67 55.08 51.23 51.01 50.49 50.19 43.18 47.85 43.33 43.77 43.22 39.24 34.94 42.80 45.78 44.96 45.54 44.86 46.07 48.19 49.91 49.42 48.73 49.01 49.63 49.49 49.16 48.54 48.71
52.19 52.35 52.43 52.88 53.88 51.98 51.27 51.59 51.72 51.18 51.33 52.12 54.12 55.44 52.98 56.60 53.84 54.54 55.25 53.64 53.93 54.81 54.61 50.98 52.45 47.16 52.25 51.10 48.51 48.07 48.99 43.25 39.18 45.06 47.11 43.91 41.66 47.59 48.74 49.55 49.49 46.89 49.18 50.41 47.66 46.59 47.47 47.62 48.45 49.08 49.32 50.39 50.39 50.47
52.43 52.50 52.97 52.98 51.41 50.87 51.46 51.81 51.77 51.56 50.58 55.67 55.19 54.38 57.19 54.45 56.50 55.03 50.57 50.10 51.43 48.86 51.79 52.74 51.09 48.92 54.04 44.72 45.10 49.21 42.76 44.45 37.65 40.79 40.48 40.36 42.06 45.59 47.99 48.70 51.42 51.75 51.21 50.41 51.10 49.26 49.76 49.41 49.15 49.79 50.17 50.85 51.04 50.80
52.65 52.92 51.97 51.19 50.67 51.34 51.30 51.39 51.58 53.23 55.83 53.97 56.09 57.48 58.13 54.36 52.53 48.49 49.51 48.97 48.54 46.87 50.70 50.62 50.15 51.80 51.60 52.49 45.89 45.97 40.43 43.89 36.56 46.39 40.52 38.91 46.13 47.41 48.81 48.93 49.62 49.05 49.71 49.86 50.90 50.14 50.85 51.17 51.30 51.20 50.72 50.54 50.70 51.11
51.45 50.88 50.73 50.93 50.94 51.21 51.03 51.29 50.85 51.15 52.27 57.09 55.54 52.10 50.73 50.84 41.84 44.06 40.93 45.53 46.84 50.59 51.45 49.97 49.06 51.93 49.57 50.51 47.27 44.98 38.36 38.22 47.61 39.37 36.71 42.00 47.03 49.31 49.85 50.10 50.11 50.89 50.19 49.77 50.24 51.20 51.26 50.52 51.25 50.93 50.15 51.30 51.23 50.88
50.47 50.52 50.44 50.42 50.63 50.81 50.61 51.24 51.17 51.83 54.32 53.42 50.84 40.77 48.07 47.02 49.63 50.45 49.95 50.42 52.42 54.06 52.29 52.20 49.80 49.22 50.83 46.27 47.77 40.77 43.01 44.26 38.79 37.35 37.86 45.10 48.04 49.61 50.23 50.80 49.61 48.81 49.57 49.48 49.54 49.98 49.56 49.98 49.78 50.71 50.92 51.23 50.64 50.06
50.03 50.03 50.49 50.76 50.47 50.82 51.35 51.24 51.07 55.16 55.05 50.57 52.57 44.74 49.13 54.48 55.26 54.73 54.76 53.62 54.03 56.14 52.90 51.36 51.14 50.39 48.35 45.87 47.35 45.18 40.25 37.72 40.37 39.46 44.52 47.74 50.46 50.69 50.12 49.61 49.57 49.46 48.69 48.17 48.22 47.97 48.47 49.06 49.03 48.84 50.76 51.37 51.15 50.52
50.28 51.88 52.19 50.89 50.83 51.00 50.54 50.95 53.29 55.11 53.98 51.19 51.31 51.46 54.67 52.52 51.55 52.34 51.71 51.55 54.36 53.98 55.11 52.61 48.26 45.18 44.52 46.26 41.89 39.79 38.25 36.78 42.87 47.40 48.85 50.42 50.00 50.51 50.31 50.06 50.01 48.98 47.53 46.87 46.87 47.07 47.25 47.32 47.61 48.53 50.03 50.03 50.38 49.62
51.89 54.84 50.85 50.20 50.91 50.94 50.72 53.63 54.06 51.09 50.40 50.61 53.11 56.19 55.24 54.56 53.72 53.38 52.91 52.61 55.41 52.32 49.54 49.92 41.59 40.74 47.53 42.15 40.12 45.42 41.03 43.88 47.05 49.44 51.11 51.10 50.67 50.13 50.11 49.70 49.03 48.67 47.06 47.06 47.16 47.31 47.37 48.12 48.57 47.99 47.43 49.02 48.51 49.30
54.31 53.64 51.02 50.45 51.63 50.99 54.21 54.31 53.40 52.08 49.52 53.69 52.99 54.91 56.51 56.62 55.07 53.91 54.51 54.34 53.14 51.81 51.59 47.94 50.95 44.24 42.26 39.38 41.97 45.33 47.00 48.80 51.47 51.59 52.21 51.87 51.96 51.27 50.83 49.45 49.42 48.16 46.99 47.37 47.41 47.38 47.65 47.57 47.33 47.98 48.38 48.83 49.01 49.55
51.90 53.61 51.81 50.92 52.73 53.51 51.70 53.12 53.70 50.29 52.83 56.48 57.13 57.49 55.94 56.18 56.96 57.28 56.71 56.06 55.26 56.25 53.14 50.88 46.84 45.14 45.32 48.07 47.62 48.10 49.42 49.72 48.60 50.83 52.24 52.41 52.26 51.64 50.49 49.28 49.44 47.57 47.24 47.30 47.32 46.92 47.57 48.11 46.43 47.84 47.26 48.04 49.04 50.53
50.98 50.77 50.88 51.98 51.84 51.94 51.43 53.69 55.83 53.00 53.61 57.20 57.79 56.38 55.89 55.27 57.00 56.10 56.29 55.64 53.82 52.64 50.19 48.36 48.65 50.61 50.62 52.05 52.40 50.44 51.06 51.41 50.59 48.13 48.28 50.59 51.43 51.19 50.03 49.34 47.25 48.54 49.09 48.08 47.65 44.81 48.06 48.46 46.19 45.90 47.82 49.12 49.26 48.15
50.11 52.21 51.15 52.13 51.57 50.71 52.25 54.47 52.54 54.35 57.83 56.03 58.79 56.97 55.56 56.95 55.34 54.55 54.34 56.51 53.06 51.14 50.17 52.80 53.57 55.02 57.27 55.36 53.33 52.83 53.00 52.56 50.73 50.67 49.46 49.44 50.62 49.82 49.05 48.42 48.52 49.20 48.56 47.58 48.62 46.59 45.42 45.80 45.45 47.86 47.62 48.00 48.05 48.23
54.12 50.98 53.75 51.46 51.73 52.37 51.83 55.36 53.35 56.78 56.09 57.73 57.22 57.02 55.14 54.28 54.76 55.75 58.32 53.22 52.59 54.36 55.73 55.76 56.36 56.36 54.82 53.04 51.55 52.76 53.78 53.94 53.27 49.48 46.80 47.90 48.77 48.35 47.88 47.99 48.07 47.35 48.47 47.76 47.37 47.32 47.84 48.47 49.26 49.28 47.48 47.18 46.29 47.87
50.80 53.91 55.33 54.27 50.67 49.07 48.60 57.65 53.63 55.32 52.78 54.80 56.86 53.60 54.31 55.05 56.95 56.10 52.68 54.89 55.78 58.55 58.29 56.64 56.00 56.21 55.20 53.49 51.60 51.00 52.34 52.78 51.15 51.58 51.26 51.16 50.78 50.30 48.92 48.60 49.68 48.36 46.62 47.38 49.83 49.38 48.51 42.47 45.69 48.76 47.84 48.43 49.25 48.04
51.01 53.20 51.04 51.31 51.03 46.81 54.71 53.07 56.41 55.77 55.73 53.69 52.64 50.60 53.16 55.96 56.00 52.99 51.15 54.13 57.56 58.06 56.28 54.10 53.45 52.22 51.92 51.53 50.37 50.49 51.05 52.73 52.59 52.40 52.38 50.83 49.24 48.99 48.55 48.16 48.91 48.67 49.12 49.05 50.07 50.15 50.31 48.62 43.56 47.66 47.87 47.83 48.58 46.48
45.77 45.70 46.86 39.22 52.03 49.53 49.68 51.88 52.63 52.44 50.22 52.20 50.60 51.32 54.18 55.20 51.67 51.13 51.22 54.51 55.91 55.46 54.92 53.84 53.22 52.89 49.84 49.66 49.43 49.39 51.02 53.35 50.61 49.16 50.90 51.38 50.04 48.87 47.72 47.90 48.89 48.44 49.72 48.28 47.57 47.87 47.93 49.83 48.78 48.97 47.90 48.02 45.87 45.65
38.39 47.57 44.11 48.61 49.35 49.78 51.66 48.60 49.68 50.21 52.09 50.48 51.96 56.51 55.98 53.29 49.11 48.22 53.44 53.92 53.69 53.97 55.11 53.78 51.69 49.77 49.31 50.08 47.37 47.71 48.47 52.43 51.35 48.57 49.41 50.40 49.31 47.59 46.26 45.51 45.84 46.23 50.04 50.45 48.05 47.48 47.44 49.14 47.40 46.08 45.27 44.51 38.89 44.54
39.71 45.32 49.78 53.12 51.55 52.52 51.76 53.75 54.37 52.78 50.26 49.68 53.59 52.35 52.52 46.99 47.66 52.54 55.88 55.77 54.12 54.17 55.21 55.27 52.47 49.02 46.45 45.55 46.39 47.21 49.13 51.04 50.12 49.17 50.26 49.74 49.55 50.84 49.67 46.85 46.26 47.48 49.63 49.90 49.95 48.63 47.36 46.55 45.55 45.30 45.47 46.18 46.46 46.01
49.86 50.06 46.25 50.60 51.10 52.68 49.01 49.60 49.86 49.26 52.24 56.40 54.79 49.35 48.79 49.45 50.69 56.23 56.80 55.77 54.13 53.18 50.85 49.49 49.42 48.64 47.32 47.54 47.64 48.26 48.25 48.54 48.57 48.61 48.34 48.32 49.32 50.27 49.84 50.67 50.23 40.59 50.29 50.31 49.87 49.63 49.22 48.69 47.99 47.35 46.62 45.84 47.40 47.72
49.26 52.34 51.63 49.05 50.08 49.68 50.14 50.27 50.86 56.35 58.40 56.84 52.73 51.51 52.87 56.57 58.10 56.43 55.60 54.37 52.38 49.00 47.58 46.45 45.40 48.15 46.61 49.00 49.11 49.69 48.50 48.15 46.87 45.35 44.21 44.44 45.02 46.45 49.40 49.32 48.90 49.31 49.66 48.80 37.57 43.68 47.30 47.71 47.93 48.04 47.70 49.15 48.50 49.47
50.02 53.23 50.39 49.59 48.09 47.57 51.36 53.14 53.96 58.30 58.77 57.40 57.50 57.48 57.93 57.99 56.25 54.42 53.75 51.63 49.60 48.41 49.17 48.11 46.40 47.54 47.24 46.92 47.14 47.70 49.06 49.60 49.95 49.14 46.77 46.22 46.82 47.84 48.39 48.47 48.82 49.11 49.48 48.75 48.39 47.33 38.08 44.91 43.25 47.90 47.40 48.31 48.91 46.87
54.08 52.08 49.70 50.19 49.57 51.96 53.68 56.29 57.10 57.30 57.20 57.12 57.77 56.26 56.11 56.67 56.37 53.12 51.35 52.43 50.95 49.70 48.07 45.90 45.08 48.71 49.44 49.02 48.15 47.50 47.20 49.50 50.21 50.17 51.01 50.97 49.57 48.69 48.23 48.37 48.68 48.90 48.99 48.80 48.67 48.74 48.44 47.85 49.49 48.13 46.46 46.34 45.14 44.41
51.72 49.93 48.83 47.30 50.04 54.95 57.02 56.44 57.30 56.30 56.15 55.78 55.88 57.57 57.22 55.41 52.72 55.64 53.46 53.71 52.40 49.07 46.93 45.65 48.11 49.35 51.83 54.12 53.68 51.82 42.03 51.72 50.93 50.57 50.22 49.65 50.24 49.96 49.17 49.26 49.13 48.72 48.29 48.34 48.40 48.71 48.12 47.39 47.88 47.10 46.25 45.43 45.69 45.77
51.25 50.95 50.31 49.49 49.87 51.41 55.96 55.24 53.84 53.41 54.96 54.65 54.34 55.73 55.28 53.96 51.18 54.57 57.91 56.82 54.08 52.81 52.62 51.84 52.52 52.38 50.67 51.56 51.43 52.65 47.18 52.62 49.33 42.30 41.96 42.22 42.60 45.96 49.38 49.38 49.10 48.58 48.09 48.18 48.48 48.57 47.60 46.74 46.98 46.46 46.52 46.03 45.46 45.06

GFSWCAN_sfc_wetblb_102.txt.gz
Wetbulb
54.67 54.83 54.87 54.99 54.69 54.38 55.15 55.84 56.58 53.95 53.41 53.84 54.58 55.53 55.86 56.28 56.02 55.42 60.48 62.25 57.97 55.82 56.48 55.97 54.56 52.62 52.84 51.64 48.10 51.74 50.57 50.70 49.15 45.18 44.62 45.38 45.48 46.90 44.57 45.32 45.15 44.00 42.02 41.80 42.40 39.79 37.80 52.20 50.48 45.99 52.13 54.69 54.71 55.36
54.39 54.39 54.53 54.63 54.51 54.26 54.26 55.46 56.30 54.15 52.87 53.56 53.99 55.26 55.63 56.28 55.88 55.33 58.82 61.16 60.76 56.18 56.21 58.56 57.74 57.64 55.79 55.34 52.68 52.61 51.50 51.79 51.26 48.00 47.89 48.11 45.27 45.92 45.61 41.56 48.16 42.27 46.99 44.70 45.87 45.41 52.40 52.94 52.78 55.00 55.44 54.87 55.15 55.16
54.05 54.11 54.07 54.31 54.21 54.14 53.90 54.97 56.22 54.26 52.75 53.29 53.56 54.75 55.43 55.86 55.88 55.20 58.97 60.78 59.11 56.28 55.76 56.05 55.60 58.76 59.77 58.59 58.36 50.91 54.07 54.92 53.81 54.66 49.80 48.29 44.28 47.91 42.47 43.60 45.78 48.26 50.22 46.78 47.38 50.32 51.25 52.29 53.23 54.15 54.77 54.11 54.37 54.44
53.77 53.97 53.97 53.97 54.25 54.16 53.75 54.51 55.58 53.85 52.59 53.02 53.31 53.87 54.95 55.66 55.43 54.40 59.37 60.54 59.03 56.67 52.33 52.47 59.58 57.29 59.38 58.83 58.01 57.81 56.05 57.24 55.77 53.90 49.68 46.50 44.57 49.29 45.51 47.23 46.62 48.37 49.02 47.19 47.09 49.65 50.47 50.90 51.97 52.93 52.88 54.10 53.38 53.41
53.31 53.52 53.70 53.63 53.69 53.70 53.49 54.12 55.54 53.37 52.49 52.96 52.89 53.36 54.57 55.24 54.51 56.35 60.92 62.27 62.09 57.49 51.47 51.52 57.10 58.21 59.25 58.55 57.25 57.17 55.95 54.56 52.47 50.43 48.68 46.65 49.85 48.57 48.48 48.01 46.26 49.49 48.40 47.11 44.57 50.43 49.98 51.03 52.85 53.58 52.38 51.75 52.36 51.87
52.98 53.22 53.23 53.27 53.28 53.36 53.07 53.76 55.40 52.74 52.48 52.78 52.42 53.02 54.28 54.76 53.94 57.94 56.51 61.29 61.34 60.64 57.07 50.39 56.54 54.77 57.46 57.79 56.50 55.17 53.88 53.41 53.90 53.71 50.73 50.56 51.62 48.33 45.55 44.67 48.74 51.09 51.93 52.83 49.61 52.77 52.78 52.65 53.88 54.04 52.68 52.89 52.76 51.94
52.91 52.81 52.88 53.06 53.22 53.07 53.41 54.23 53.85 52.26 52.21 52.20 52.10 53.09 54.30 54.14 55.79 56.50 54.73 57.24 54.96 60.37 54.79 49.01 50.47 55.13 56.68 55.48 55.30 54.02 54.47 51.96 51.66 49.46 47.84 47.21 45.53 46.85 44.93 42.23 48.78 50.78 52.11 52.19 52.86 52.91 50.82 52.00 50.73 53.42 53.61 54.16 54.07 53.46
52.67 52.63 52.64 52.91 53.02 53.14 53.52 54.46 52.55 51.98 51.62 51.89 52.38 53.36 54.04 53.09 53.44 56.45 58.84 56.46 56.73 59.34 56.31 48.01 48.53 51.80 55.97 51.47 51.59 54.43 52.78 50.35 50.12 47.84 47.92 45.75 45.67 43.54 38.62 45.83 48.71 50.45 51.56 50.97 51.19 51.90 52.29 51.92 52.96 52.07 52.57 51.92 51.06 50.54
52.56 52.47 52.59 52.64 52.84 53.17 54.29 52.51 52.39 51.70 51.74 52.57 52.97 53.69 56.98 55.87 57.93 57.96 56.43 56.88 61.67 58.45 52.15 51.06 47.55 46.83 54.92 51.69 51.39 51.72 51.73 45.48 50.88 47.49 46.29 46.70 44.55 37.35 43.89 47.08 48.54 50.46 49.82 49.47 50.86 50.68 51.07 50.01 50.57 51.67 50.97 50.59 49.85 50.09
52.58 52.39 52.50 52.61 52.93 53.84 52.32 52.36 52.03 51.74 52.26 52.47 55.07 57.37 54.85 58.50 54.31 55.71 56.47 56.42 56.58 56.08 54.82 50.53 53.25 47.78 52.78 51.79 49.84 47.61 49.84 46.30 43.62 45.71 48.72 44.60 44.17 48.79 51.07 51.80 51.26 50.94 51.76 51.03 48.16 47.66 49.40 49.24 50.22 50.28 49.44 50.81 51.54 51.11
52.91 52.82 52.63 53.22 52.96 52.07 52.26 52.49 52.12 52.12 51.01 57.50 57.39 55.17 59.58 55.61 58.68 57.12 52.50 51.03 52.41 49.67 52.77 52.75 52.19 50.02 54.28 48.78 47.55 49.78 46.71 45.82 40.72 44.75 43.89 42.52 42.86 48.13 51.13 49.50 51.58 53.12 52.57 52.05 51.69 52.30 52.59 51.38 50.36 50.66 50.86 51.64 51.62 51.89
52.86 52.40 51.90 51.16 51.38 51.99 52.18 52.05 52.18 53.42 58.30 54.59 56.22 60.04 60.38 56.17 54.28 50.72 50.45 51.34 49.08 47.57 52.18 51.12 50.50 52.18 52.39 53.38 49.57 49.59 44.50 44.96 39.47 48.24 42.54 40.64 46.81 51.35 50.66 49.91 50.65 51.66 51.11 50.94 51.88 51.07 51.06 50.71 51.22 50.67 51.62 51.65 50.74 53.47
51.47 51.07 50.74 51.20 51.66 52.07 51.34 51.38 51.22 51.75 53.35 60.30 57.22 53.36 53.07 53.24 43.08 46.61 44.79 47.49 48.38 51.48 52.87 52.11 49.84 52.02 52.62 51.82 48.39 47.59 42.04 41.31 48.71 42.59 41.82 43.57 50.33 51.90 51.81 51.43 50.97 52.07 52.09 51.45 51.01 51.21 51.53 51.79 52.33 52.30 51.66 52.20 50.75 51.90
50.36 50.78 50.82 51.25 51.49 50.88 50.92 51.72 51.26 53.70 55.98 54.19 51.08 41.37 48.60 48.14 49.29 51.03 50.86 51.03 54.03 53.79 52.98 53.10 51.13 49.74 51.79 47.20 48.19 42.95 46.00 46.16 40.28 39.71 40.63 46.81 51.07 52.06 51.88 51.88 51.01 50.29 50.50 50.63 50.46 50.77 50.53 50.74 50.36 51.96 52.06 51.22 49.99 49.23
50.45 50.79 50.81 50.67 50.90 51.44 51.36 51.25 51.31 56.89 56.91 51.93 52.79 45.28 50.00 53.60 54.92 55.27 54.26 53.35 53.45 54.72 54.27 51.81 51.31 50.81 48.61 46.91 48.15 45.40 42.82 39.74 41.60 41.35 44.76 49.86 53.32 52.58 51.20 50.72 49.98 50.63 50.50 49.48 49.51 48.91 48.64 48.82 48.33 49.09 50.84 52.91 52.45 49.47
51.55 51.08 53.95 51.07 51.13 51.49 51.13 51.07 54.84 58.36 56.14 53.28 53.52 52.21 54.33 52.85 52.97 53.74 52.75 52.85 54.15 53.76 54.00 52.97 49.76 47.33 46.62 46.67 44.52 42.53 40.70 39.37 42.91 46.42 50.18 52.98 53.21 52.32 51.68 51.40 50.87 50.77 50.67 49.46 49.08 48.60 48.35 48.74 48.38 48.78 49.82 49.97 50.14 49.99
49.81 56.74 50.89 51.27 51.26 51.32 51.60 55.42 57.68 53.70 52.64 52.39 52.47 55.69 54.49 54.45 54.85 54.21 54.88 54.20 55.93 52.78 50.55 51.29 45.77 44.36 48.57 43.86 42.62 46.70 43.27 46.09 48.76 49.18 52.79 55.32 54.07 52.82 51.85 51.29 50.63 50.37 49.63 49.20 48.62 49.34 48.76 48.95 48.82 48.53 47.95 49.22 49.75 50.20
56.11 53.65 51.35 51.35 52.47 54.23 57.05 55.30 55.06 53.31 50.52 53.46 52.37 54.45 56.65 57.05 55.37 56.24 55.31 55.80 53.76 52.32 52.52 49.33 52.60 47.82 45.06 42.99 43.67 48.50 50.92 51.85 52.15 51.72 53.11 54.48 54.73 53.52 51.99 51.56 51.42 50.39 49.24 49.01 49.06 48.38 48.52 48.67 48.03 49.11 49.41 50.07 49.79 49.96
52.37 54.16 51.36 51.23 53.13 54.57 54.50 54.99 55.23 50.89 53.82 55.68 56.53 57.05 56.40 55.97 57.63 58.26 57.76 57.10 56.37 56.02 54.20 52.38 48.97 47.56 47.89 51.15 50.32 49.32 51.34 52.33 49.19 51.77 53.56 55.72 55.10 53.34 52.44 51.48 50.53 50.34 49.25 49.45 48.93 47.82 48.69 49.20 47.34 47.77 50.09 50.54 49.67 49.05
50.81 51.67 51.71 51.56 51.20 54.56 52.96 54.49 58.38 54.16 53.28 55.89 57.67 56.82 56.24 55.83 57.15 56.92 56.68 56.69 56.47 55.04 52.07 50.27 49.98 51.79 51.36 52.40 54.29 52.43 52.52 54.05 50.22 48.84 50.91 51.86 53.08 53.16 51.90 50.76 49.29 50.20 49.28 49.91 48.96 47.46 48.36 48.77 51.46 51.28 50.88 49.57 48.41 47.00
49.81 54.73 52.13 53.22 55.26 54.89 53.67 55.17 55.86 56.01 57.21 56.33 57.60 56.97 55.74 57.44 56.01 55.87 55.56 57.27 54.90 53.50 52.50 52.82 53.40 54.04 54.83 55.09 54.95 55.70 52.37 52.49 52.45 51.22 51.64 51.35 52.89 52.33 51.37 51.30 50.85 49.82 48.45 48.10 48.45 47.08 45.27 48.20 50.88 51.34 49.39 48.88 48.92 50.09
56.20 52.44 56.78 54.61 54.11 55.32 54.16 56.19 54.27 58.16 56.29 56.69 56.35 57.49 54.77 54.20 54.50 54.39 56.98 55.91 55.51 54.30 53.87 55.60 56.14 57.81 55.09 58.19 56.44 56.52 55.81 54.83 56.61 52.76 49.34 49.59 50.95 50.17 50.35 50.77 49.97 48.79 48.39 48.08 48.73 47.66 47.75 48.28 50.05 48.99 47.63 48.52 47.74 48.39
49.98 53.63 55.49 56.05 51.87 49.52 49.09 57.73 53.85 55.46 52.32 54.27 56.13 54.07 54.02 55.12 56.78 60.54 55.74 57.00 57.20 58.68 57.62 57.86 59.94 59.50 57.76 56.84 56.43 54.20 53.13 54.45 53.76 53.27 53.75 52.65 52.94 52.33 51.85 50.87 50.53 49.17 47.92 48.53 49.15 49.36 49.44 43.08 47.27 48.39 49.00 48.08 48.18 47.59
50.43 53.34 52.37 51.89 52.00 47.20 54.59 52.86 55.71 54.25 54.55 52.97 52.23 51.32 53.60 54.25 57.09 52.64 50.94 53.33 53.59 55.19 59.09 60.02 58.57 55.52 54.19 54.35 50.79 50.73 53.42 53.21 53.63 53.31 54.15 52.88 51.22 51.08 51.89 50.42 50.30 49.52 49.78 49.68 49.24 49.10 49.28 48.83 46.40 47.68 48.38 48.21 48.19 47.75
46.50 46.17 48.17 41.55 52.60 51.30 49.96 51.00 52.47 52.36 50.48 53.16 52.36 52.08 53.37 53.95 49.65 51.90 52.88 54.12 53.40 55.05 57.06 57.52 57.36 54.97 49.78 50.45 50.25 52.53 54.09 53.61 52.08 52.61 53.25 52.92 52.23 51.54 50.35 50.09 50.06 49.95 50.69 49.24 48.08 48.13 48.48 48.49 49.08 48.75 47.68 48.14 46.68 47.30
41.33 49.01 44.86 50.13 50.40 48.95 50.03 49.14 50.41 50.19 52.47 50.13 51.84 54.61 54.10 52.29 50.83 49.08 51.09 50.28 51.92 56.30 56.65 56.08 55.86 53.60 51.08 49.72 50.77 50.51 52.99 54.83 53.71 51.47 52.26 52.75 52.58 51.87 49.56 48.49 47.84 48.40 50.44 50.67 49.50 47.97 47.84 48.47 47.71 47.49 47.19 46.23 40.13 44.05
41.74 47.79 52.27 55.00 53.14 53.09 51.75 52.82 53.69 52.97 49.84 49.80 52.24 50.75 48.03 47.62 49.29 53.89 54.92 57.22 56.37 57.17 57.60 57.56 56.43 53.62 51.95 51.70 52.38 53.90 54.20 53.47 53.08 51.99 52.47 53.38 52.37 52.25 51.32 49.12 48.29 49.59 51.06 51.09 50.32 49.30 48.29 47.94 47.86 47.67 47.72 48.07 48.67 47.68
50.94 51.89 48.59 51.81 51.92 52.25 49.12 49.64 49.99 50.18 51.56 53.51 50.73 49.50 50.13 50.49 49.98 54.05 56.91 57.65 56.53 55.61 55.19 54.94 54.85 54.59 54.05 54.18 54.51 52.40 51.59 51.80 51.78 51.63 51.34 51.16 51.83 51.63 52.35 51.58 50.45 42.90 50.74 50.69 50.90 50.55 49.57 49.31 48.64 48.54 47.97 47.81 48.80 48.64
50.77 53.09 52.82 50.08 51.09 51.90 51.70 50.78 51.01 53.33 56.47 51.81 51.18 51.42 50.49 57.11 57.56 55.43 56.92 56.45 56.01 54.60 52.89 52.99 53.52 54.73 53.90 52.82 52.00 51.72 51.09 50.34 48.87 47.08 46.92 46.75 47.47 48.93 51.42 51.54 50.19 50.12 50.93 49.79 39.19 45.12 47.96 47.91 48.57 48.72 49.01 49.19 49.40 49.43
50.32 53.80 50.20 50.16 49.85 49.43 52.86 54.86 53.58 55.50 57.15 56.92 56.88 56.34 56.57 56.56 57.21 59.32 57.94 56.01 54.47 54.45 54.28 54.02 53.01 53.44 50.33 49.58 49.58 49.97 51.20 51.22 51.52 50.31 48.45 48.38 48.93 50.57 50.95 50.90 49.86 50.37 51.05 50.39 49.52 48.94 42.12 45.89 45.25 47.96 47.40 48.63 48.95 48.14
53.43 52.67 50.65 51.02 50.35 53.10 55.81 57.01 56.74 56.68 56.08 56.74 57.03 55.20 54.48 56.08 55.74 57.26 56.88 56.64 55.92 56.21 55.62 53.94 50.15 52.53 50.65 49.98 50.08 48.84 48.73 51.54 52.45 51.99 51.32 51.40 50.98 50.81 51.17 51.42 51.74 51.54 51.24 50.69 50.35 49.71 48.64 48.07 48.72 48.59 48.41 47.81 47.78 46.13
52.72 50.84 50.02 50.17 51.94 55.74 56.67 55.20 54.04 53.75 54.02 52.91 52.91 57.51 56.55 56.11 53.19 54.46 58.13 57.54 54.68 53.39 49.37 52.24 50.32 51.73 53.67 53.90 52.97 53.22 42.48 53.09 52.69 52.65 52.66 52.32 52.21 51.98 51.44 51.24 51.51 51.29 50.66 50.35 50.28 50.16 49.62 48.92 49.20 48.89 47.94 47.54 47.45 47.31
53.59 53.94 53.65 52.62 51.84 51.48 53.87 53.94 54.28 53.37 54.16 53.34 54.73 55.08 53.53 53.88 50.37 55.07 58.41 57.96 56.61 55.86 54.48 52.60 53.80 53.45 55.25 54.90 54.09 54.44 49.63 54.86 50.75 43.19 42.37 41.84 42.40 47.02 51.63 51.43 51.50 50.97 50.19 50.00 49.74 50.12 49.37 48.92 48.85 48.27 48.50 47.85 47.71 47.79

GFSWCAN_sfc_wetblb_105.txt.gz
Wetbulb
54.43 54.67 54.89 55.01 55.05 55.15 54.85 54.72 55.37 56.84 55.23 54.43 54.50 55.02 56.09 56.56 56.19 54.59 56.75 61.30 55.82 53.17 53.60 55.03 54.43 51.12 50.98 49.75 45.55 49.14 47.79 48.31 45.72 40.97 40.14 40.82 41.81 42.50 40.76 40.99 39.50 39.29 36.35 34.75 35.28 32.97 34.82 50.30 49.57 44.44 47.16 51.03 52.44 52.37
53.98 54.33 54.51 54.69 54.85 54.69 54.71 54.60 54.74 56.34 55.45 54.23 54.54 54.92 56.10 56.19 56.09 55.58 57.20 60.52 60.61 54.95 54.19 56.89 56.26 57.34 55.74 53.76 49.18 49.27 48.92 49.89 48.59 44.78 44.53 44.54 41.98 43.06 41.24 36.56 42.50 35.60 42.12 39.39 40.23 40.43 47.25 49.74 48.82 50.52 51.63 50.58 51.08 50.62
53.39 53.84 54.07 54.23 54.47 54.39 54.48 54.40 54.38 56.00 55.21 54.01 54.09 54.41 55.49 55.82 55.86 54.85 56.77 59.57 57.68 55.55 54.78 54.81 53.70 57.41 57.73 56.26 56.19 48.22 51.06 52.63 51.04 51.83 47.02 45.76 42.17 43.55 38.28 40.05 41.46 43.29 46.18 40.89 42.57 47.94 47.48 48.94 50.71 51.11 51.99 50.08 51.32 51.83
53.35 53.76 54.03 53.97 54.01 54.18 54.30 54.24 54.13 55.73 54.54 53.59 53.88 53.87 54.90 55.56 55.29 54.90 57.27 60.08 58.78 56.44 50.02 52.09 58.20 55.81 58.56 57.53 56.74 55.71 53.32 54.78 52.84 51.30 46.21 42.72 41.05 46.24 42.18 43.75 41.97 44.78 44.30 42.66 42.15 44.25 46.65 48.90 49.95 49.76 50.32 51.73 51.03 51.00
53.05 53.41 53.59 53.67 53.66 53.78 53.96 54.00 53.97 55.86 53.72 53.41 53.50 53.74 54.47 55.24 54.30 54.33 57.39 60.34 61.35 55.75 49.54 50.96 55.17 56.61 57.84 57.14 56.46 55.94 54.29 52.64 50.62 47.71 46.08 43.97 47.11 45.27 45.79 44.54 42.65 46.25 42.24 42.58 40.11 46.36 44.95 46.21 49.15 51.45 49.59 48.65 49.91 49.10
53.10 53.19 53.25 53.20 53.20 53.37 53.75 53.47 54.07 55.55 53.09 53.25 53.27 53.34 54.32 54.70 53.76 56.74 56.51 58.96 58.36 59.07 54.49 46.51 54.95 54.66 56.17 55.78 54.70 53.74 52.80 52.17 51.08 48.96 47.29 48.38 49.67 44.07 41.31 40.20 46.48 48.96 49.98 49.81 46.59 49.37 48.90 50.00 51.31 52.33 50.16 49.81 50.20 48.30
53.07 52.88 53.02 52.96 53.17 53.33 53.23 53.55 54.99 53.61 52.74 52.86 52.71 53.09 53.93 53.82 53.30 55.79 53.64 55.44 54.07 59.49 54.72 48.36 47.92 54.48 55.69 55.42 53.37 51.84 52.54 50.35 49.45 47.06 44.75 45.26 43.78 44.58 42.69 38.70 45.67 47.20 48.85 49.72 50.15 49.31 47.55 49.26 47.49 51.07 52.34 52.75 52.12 50.57
52.95 52.84 52.86 52.91 53.10 53.01 53.41 54.43 53.97 52.55 52.41 52.42 52.94 53.48 53.45 53.05 52.86 55.95 58.70 54.26 54.57 57.56 55.15 47.93 48.45 49.19 55.47 50.38 49.05 53.23 49.36 49.56 48.01 45.71 45.78 43.87 43.86 42.60 37.68 42.83 46.12 47.69 48.83 48.65 48.55 49.23 48.64 49.19 49.39 49.83 50.61 50.73 49.16 49.08
52.78 52.63 52.50 52.79 52.87 53.33 54.11 53.54 52.74 52.53 52.21 52.69 53.44 53.78 55.23 54.80 57.22 57.35 58.19 57.20 59.09 58.27 52.09 51.35 47.08 45.32 53.71 49.98 50.34 49.56 50.80 44.72 48.22 45.07 44.69 44.65 42.24 33.16 39.49 43.10 46.27 47.42 48.31 46.65 48.25 48.81 49.34 48.83 47.49 48.75 48.93 49.48 48.25 48.15
52.68 52.40 52.48 52.70 52.94 53.75 52.94 52.61 52.44 52.23 52.55 53.21 53.54 55.20 54.46 57.55 55.30 57.28 57.51 55.58 56.34 56.78 55.54 50.71 52.44 47.00 51.23 49.64 47.74 46.82 47.11 44.65 41.48 44.70 47.31 42.55 42.40 45.57 46.81 47.53 49.53 49.11 49.32 49.29 45.19 46.62 47.42 47.75 47.84 48.37 48.50 49.38 48.89 48.52
53.21 52.84 52.94 53.43 53.13 51.96 52.42 52.30 52.07 52.11 50.85 55.26 56.49 55.69 59.49 56.84 58.52 56.37 52.47 51.62 52.56 49.99 52.39 51.14 51.26 48.46 53.14 46.44 45.73 48.15 44.99 44.03 38.82 42.54 41.86 40.97 40.39 46.60 49.52 49.83 50.89 50.68 50.65 49.90 49.55 49.51 49.87 49.10 47.55 47.95 49.08 50.57 49.22 49.17
52.38 51.94 51.41 51.44 51.72 51.98 52.00 52.03 52.28 51.82 56.54 51.84 51.88 57.25 60.10 56.23 53.64 49.76 49.46 51.50 49.54 46.85 51.77 49.24 50.69 51.43 50.81 52.55 47.39 48.25 43.44 43.47 38.20 46.80 42.07 38.16 44.68 48.53 49.67 49.59 49.93 51.64 51.31 51.02 51.11 50.12 50.04 49.80 49.76 48.84 48.28 48.92 49.31 50.50
51.19 50.59 50.86 51.39 51.67 51.90 51.63 51.77 51.82 51.40 51.76 58.78 55.80 54.22 52.21 51.98 41.15 45.09 43.72 46.72 47.66 51.28 52.31 51.73 48.64 50.98 51.54 50.97 46.57 46.04 41.24 39.55 46.64 40.39 37.71 41.14 47.14 50.46 49.97 49.78 50.30 51.45 51.41 50.66 50.82 50.20 49.82 51.28 51.38 48.95 47.40 50.36 50.42 48.85
50.33 50.44 50.32 50.72 51.23 51.80 51.69 51.29 51.69 52.68 54.42 54.68 51.13 38.68 46.86 46.35 48.79 49.98 50.29 51.67 53.87 53.40 52.43 51.40 50.18 49.80 50.66 47.24 47.29 42.40 44.58 44.64 39.43 36.90 39.13 45.52 48.33 48.05 50.10 50.69 49.60 49.11 49.79 49.68 49.63 50.43 49.89 50.96 49.29 49.64 48.54 48.95 49.37 47.12
51.02 50.60 50.53 50.59 50.83 51.25 51.25 50.81 51.36 53.78 55.50 52.39 52.11 43.47 48.40 52.22 54.56 54.27 54.90 54.23 54.05 54.39 52.90 51.68 51.61 50.99 48.26 46.84 47.24 45.64 42.59 39.14 40.82 39.44 43.75 47.93 49.63 49.08 49.39 48.91 48.41 49.32 48.96 47.40 48.60 47.07 47.05 47.22 47.11 46.89 47.70 47.90 49.12 48.01
51.30 50.22 52.61 51.75 51.66 51.82 50.80 50.93 52.33 56.85 55.61 52.46 52.50 50.43 54.03 52.71 52.29 53.44 53.59 51.93 53.93 53.48 53.94 53.18 49.82 47.57 46.16 46.79 44.12 42.56 40.27 38.99 42.61 45.88 49.15 51.27 51.13 50.45 49.39 50.02 49.94 49.32 47.80 47.55 46.62 46.78 47.03 46.42 45.57 45.62 46.63 46.77 47.16 47.15
48.77 54.32 50.94 51.34 51.43 51.41 51.36 51.50 56.97 53.39 51.29 50.97 50.84 54.36 53.81 54.19 52.49 54.66 56.54 54.79 56.28 52.49 48.97 51.42 47.08 44.92 48.37 43.75 43.11 46.31 43.37 45.98 48.45 49.99 50.87 51.75 51.89 51.17 50.84 50.19 49.65 49.35 47.77 46.74 47.08 46.51 46.09 47.00 47.44 46.42 45.22 46.42 47.01 47.44
52.61 52.92 51.67 51.39 51.59 53.82 54.94 52.37 53.79 52.62 49.28 51.53 50.23 52.78 55.08 57.08 54.81 55.14 55.80 55.38 54.93 52.84 51.60 48.49 51.76 46.91 45.05 42.72 43.17 46.90 47.96 49.25 50.29 51.22 51.55 52.84 52.70 52.38 51.44 49.64 49.86 48.67 47.20 47.33 46.48 46.19 47.26 46.23 45.43 45.44 46.09 46.65 47.14 46.67
51.28 51.86 51.60 51.57 52.19 52.55 53.98 54.53 54.65 49.12 51.66 54.02 55.54 56.41 55.90 55.98 57.64 59.39 58.29 56.33 57.56 57.06 54.78 52.29 48.82 45.64 46.31 48.23 48.72 48.76 49.53 48.84 46.67 51.82 52.27 53.35 53.12 52.28 50.78 50.74 50.01 48.57 47.95 47.13 46.53 45.61 46.58 46.84 46.14 46.37 47.42 47.13 45.49 45.44
50.89 51.23 51.94 51.73 50.69 52.11 52.27 53.16 58.27 52.47 50.74 55.54 57.29 55.80 55.63 55.95 56.28 57.24 57.24 56.85 56.41 54.36 51.63 48.49 48.06 50.12 50.68 52.38 53.05 53.41 53.17 50.78 47.62 48.74 50.42 51.57 52.23 52.02 51.08 50.07 48.41 48.64 48.73 48.43 46.64 44.52 46.97 46.38 48.48 48.24 47.74 46.76 46.02 45.49
49.94 54.20 52.13 52.03 52.49 51.04 52.23 53.76 53.85 55.28 55.50 54.87 57.20 57.18 55.74 57.10 55.53 55.42 56.01 55.02 54.63 52.53 48.74 51.85 52.46 53.44 56.04 55.13 54.56 54.93 54.07 49.77 48.95 47.02 48.53 49.89 51.34 51.26 50.17 50.03 49.56 48.59 47.33 46.76 46.36 44.10 45.73 46.10 47.84 48.02 47.10 46.55 47.27 47.03
55.12 52.66 55.18 51.86 52.10 54.69 52.98 55.31 52.57 57.42 55.05 55.03 55.36 56.46 54.46 54.68 54.94 56.35 59.15 55.87 53.21 51.19 53.56 53.12 53.50 54.10 55.27 55.92 56.99 55.37 51.61 50.35 50.64 50.13 49.12 50.14 50.38 50.04 49.73 50.21 49.01 47.22 46.71 46.63 46.53 45.40 45.76 47.07 47.75 47.93 47.37 46.53 45.95 46.52
51.79 52.88 53.63 54.26 51.45 47.18 46.45 56.57 52.23 54.03 51.02 53.56 56.35 53.89 53.32 54.74 56.63 57.01 52.38 52.58 51.19 54.93 55.04 54.96 55.21 56.16 56.06 52.73 50.93 50.12 50.22 49.58 49.77 51.10 52.92 51.61 51.66 51.33 50.61 49.80 48.91 47.31 46.07 46.78 47.74 46.87 46.40 44.85 45.73 46.51 46.36 45.68 45.21 44.94
51.98 51.32 51.12 50.71 50.37 44.13 52.95 51.96 54.20 53.10 53.66 52.27 51.93 50.80 52.78 55.12 57.75 55.15 51.70 51.18 52.95 54.20 53.17 53.66 56.20 52.62 51.50 51.54 48.30 48.28 50.89 52.39 52.97 52.73 53.78 51.71 50.06 50.84 50.25 48.80 48.69 48.77 48.74 48.37 47.92 47.75 47.32 46.93 45.13 46.16 45.72 46.18 45.56 46.08
44.72 43.90 45.62 37.46 51.40 50.04 48.91 49.28 50.29 50.86 49.60 51.73 51.47 51.28 50.95 54.03 51.35 48.64 50.79 51.70 55.21 55.11 55.13 55.70 54.28 52.56 49.64 49.66 48.80 50.93 52.14 53.04 51.30 51.66 51.81 52.34 50.39 50.75 48.93 48.58 48.23 48.17 48.78 47.95 46.65 47.05 47.38 47.40 46.72 47.36 46.08 46.40 46.00 45.48
38.49 47.37 42.78 48.52 48.67 47.24 47.96 47.97 49.58 49.84 49.72 49.77 51.60 53.79 53.37 52.75 48.39 45.88 49.65 53.07 54.56 55.21 56.22 56.43 50.31 51.80 50.64 50.04 49.65 49.69 51.98 54.65 53.98 51.46 52.27 52.03 51.37 49.39 47.57 46.86 46.24 46.69 49.17 49.34 47.77 46.99 47.37 47.41 47.02 47.28 46.74 45.67 43.45 42.94
40.81 46.18 50.88 54.51 51.75 51.58 50.78 52.05 52.51 50.22 47.52 49.11 51.14 50.67 49.30 45.69 47.31 51.03 55.13 55.62 54.74 54.44 55.45 55.22 54.90 52.51 51.11 51.50 53.37 52.93 54.30 54.20 52.84 51.88 52.73 52.40 51.11 50.27 50.17 48.23 47.29 48.01 49.42 50.06 49.30 48.46 47.44 47.58 47.14 47.00 46.66 46.78 47.01 46.72
49.34 51.06 47.42 50.80 51.08 52.73 49.13 49.09 48.13 48.27 51.14 54.99 53.56 48.84 46.72 46.74 48.12 53.78 54.98 56.57 53.69 54.29 54.28 54.39 54.85 54.30 53.51 54.00 54.01 53.83 52.46 51.61 52.66 51.64 50.75 50.94 51.36 50.35 49.70 48.91 48.41 43.04 47.27 49.05 49.94 49.72 48.82 48.66 47.82 47.40 47.62 46.72 46.97 47.56
49.58 52.17 51.91 49.35 50.60 51.26 51.42 50.51 51.03 52.34 56.52 54.07 49.17 47.55 51.77 56.23 55.86 56.25 57.45 55.93 55.83 54.44 52.95 52.51 53.96 54.55 54.55 54.92 54.45 51.64 50.63 49.84 49.00 47.88 47.10 45.63 46.69 48.13 50.07 49.32 49.53 49.73 47.95 45.64 40.55 44.73 46.84 46.62 46.91 47.12 48.21 47.92 47.98 48.03
49.83 53.06 50.04 49.91 49.02 48.46 52.26 54.47 53.68 56.20 56.82 55.97 54.68 55.76 57.20 56.68 58.98 59.50 58.46 55.06 54.28 53.51 53.82 53.69 53.23 53.12 49.68 49.27 48.98 50.21 51.51 51.11 51.23 49.75 48.70 47.74 47.87 49.60 49.95 48.67 48.50 49.43 48.80 48.11 47.53 46.32 42.08 44.94 43.63 46.24 45.80 46.70 47.60 47.33
52.93 52.01 50.11 50.29 49.50 52.53 54.56 56.00 56.54 56.09 56.94 54.80 55.46 53.91 54.56 55.79 55.93 57.38 56.75 57.08 56.09 55.83 54.76 52.00 51.19 51.85 51.78 49.80 49.19 49.05 48.98 51.55 52.48 51.45 50.52 50.99 50.27 50.82 51.02 50.41 50.07 50.72 50.40 48.95 48.06 47.71 46.41 45.57 46.53 47.05 48.16 47.99 46.52 44.93
51.82 50.73 49.94 48.70 50.37 54.44 56.20 54.74 54.06 52.92 53.85 52.84 51.91 54.22 55.15 54.62 53.02 55.75 58.19 57.68 55.09 53.36 49.00 51.74 51.78 52.15 53.57 52.32 52.75 52.26 46.68 52.75 52.62 52.50 54.36 52.05 50.89 51.86 51.29 51.14 51.56 51.04 50.74 50.18 49.92 49.08 48.74 48.70 48.38 48.41 47.71 47.75 47.69 47.30
52.04 52.26 52.56 51.85 51.67 50.32 54.05 54.30 53.76 52.11 51.29 50.37 51.71 53.79 54.22 53.42 50.50 55.33 58.20 58.29 57.11 55.37 54.07 53.32 53.60 54.69 56.21 55.41 55.08 54.52 50.09 55.32 48.51 42.13 43.19 44.11 45.17 47.47 51.20 50.95 51.15 50.84 50.24 49.65 49.16 49.11 49.53 50.39 48.89 48.96 48.09 47.79 47.92 47.52

GFSWCAN_sfc_wetblb_111.txt.gz
Wetbulb
53.04 53.12 54.01 54.11 53.88 54.60 54.90 54.90 55.17 55.10 55.17 56.17 55.34 54.61 55.14 55.55 55.84 51.11 50.46 52.25 48.53 44.69 45.46 49.27 49.23 45.22 44.24 40.60 38.28 40.72 41.39 41.99 39.48 35.58 35.09 34.55 32.81 35.40 32.46 35.42 34.22 32.67 29.18 28.26 28.90 28.40 29.97 46.89 47.97 42.35 45.11 46.10 51.31 53.72
53.31 53.69 54.00 54.12 54.22 54.48 54.56 54.66 54.92 55.02 54.90 56.05 54.95 54.67 55.01 55.09 55.45 53.62 49.37 53.36 52.27 46.81 47.03 49.16 49.83 49.87 49.29 47.53 42.80 40.25 41.17 41.23 42.87 38.24 37.42 37.47 36.23 36.35 34.10 29.61 38.52 32.55 36.20 35.44 34.73 34.83 42.54 44.76 46.02 48.66 49.78 48.55 50.27 49.74
52.77 52.84 53.39 53.72 54.06 54.22 54.30 54.44 54.58 54.68 54.78 55.91 54.50 54.02 54.68 54.54 55.25 52.82 49.15 50.79 49.87 46.66 47.01 47.16 47.56 51.87 52.36 50.41 48.31 43.50 42.89 45.22 42.93 44.25 40.21 38.84 35.73 37.18 32.05 35.08 36.25 39.14 39.59 38.35 38.55 41.58 43.29 44.67 46.45 48.84 48.82 48.36 50.24 50.62
52.90 53.34 53.67 54.03 53.93 54.04 54.20 54.32 54.38 54.68 54.70 55.87 53.78 54.07 54.21 54.33 54.39 52.67 48.17 50.29 50.36 47.69 42.21 44.56 52.11 49.59 53.23 51.69 51.60 48.57 46.93 46.04 44.47 42.41 37.81 36.46 36.52 39.51 36.29 37.71 36.82 40.60 40.52 36.79 37.14 40.60 42.31 44.82 45.52 47.35 49.25 49.41 49.95 50.29
52.78 53.41 53.71 53.83 53.72 53.47 53.79 54.06 54.02 54.31 54.64 55.45 53.33 53.78 53.74 54.13 53.33 49.93 48.80 50.59 50.72 48.38 42.33 43.34 47.16 49.31 47.87 49.75 49.60 48.96 47.16 44.95 42.70 40.98 39.82 38.58 38.69 38.50 38.30 37.92 35.00 39.51 38.97 36.71 36.73 41.48 40.05 41.69 44.99 47.24 48.48 48.44 48.87 48.69
53.29 53.26 53.43 53.29 53.18 53.34 53.44 53.71 53.83 54.13 55.09 53.31 52.81 52.77 53.16 53.37 52.79 52.50 48.43 51.61 50.33 51.33 45.17 40.62 45.60 46.87 48.42 48.88 47.47 46.55 45.22 44.00 43.60 41.60 39.08 39.90 40.63 38.50 34.56 33.03 40.59 42.04 43.14 42.79 42.31 43.98 43.79 45.42 46.79 47.54 44.86 45.88 47.32 47.14
53.13 53.08 53.08 53.14 53.18 53.40 53.38 53.45 53.60 54.44 53.62 51.96 52.08 52.31 52.67 52.26 50.05 50.44 48.55 51.20 50.57 51.42 45.17 40.84 41.66 46.66 49.03 47.10 45.81 44.86 44.15 42.42 41.78 38.49 38.20 37.76 37.63 38.22 34.55 28.85 40.86 41.58 43.99 44.56 45.14 44.88 43.48 45.44 43.79 46.41 47.17 48.14 48.44 46.14
53.09 52.70 52.77 53.02 53.29 53.08 53.19 53.37 54.48 52.58 51.87 51.77 51.86 52.44 52.32 52.06 51.67 51.18 52.13 51.59 51.13 51.38 46.27 40.66 41.17 43.49 47.09 43.19 42.24 44.31 41.81 41.60 40.06 38.27 37.96 36.79 36.69 34.16 29.37 36.74 39.61 41.84 43.61 44.83 44.55 44.62 43.56 44.22 45.42 46.22 46.48 46.41 45.24 44.17
52.92 52.61 52.63 52.84 53.02 53.31 54.30 52.69 51.69 51.62 51.35 51.96 52.73 52.84 52.02 50.89 50.44 51.04 56.24 53.67 51.17 50.98 45.04 42.18 39.69 38.48 45.44 41.62 41.82 42.58 41.28 37.56 39.48 37.05 37.06 37.58 35.02 30.53 32.96 35.84 38.81 42.21 42.92 43.39 44.79 44.71 44.71 44.05 43.88 44.71 45.02 45.15 43.75 44.51
53.04 52.56 52.74 52.95 53.60 52.40 51.27 51.56 51.46 51.42 51.57 52.19 51.64 51.72 48.43 51.27 56.36 55.54 51.31 47.53 48.63 48.62 47.29 42.89 42.98 40.74 43.14 40.65 39.45 39.45 38.16 35.52 30.32 36.29 40.13 35.10 33.74 38.39 38.92 37.99 40.28 43.07 44.42 43.96 40.39 39.58 40.61 41.12 43.52 43.29 44.20 45.13 45.13 46.67
52.14 52.25 52.22 51.76 51.55 51.31 51.40 51.74 51.82 51.66 52.47 51.16 50.76 48.94 51.63 55.10 51.32 48.98 45.18 44.17 44.40 42.95 43.22 43.59 42.19 41.51 44.24 40.42 38.89 39.82 36.41 35.43 31.16 35.13 35.31 30.96 32.54 38.06 42.98 40.49 40.59 42.81 45.06 44.83 44.10 43.52 44.31 44.30 44.62 44.39 44.83 46.41 46.49 46.61
51.11 50.97 50.93 51.17 51.29 51.15 51.23 51.06 50.84 49.70 47.42 46.19 46.59 48.28 49.69 48.80 45.22 43.29 41.77 43.17 42.43 40.74 42.10 42.00 42.23 42.99 42.27 42.50 39.98 39.38 35.47 35.95 31.87 38.75 35.87 28.47 36.02 39.73 42.94 44.49 44.27 43.89 45.60 46.37 46.02 45.63 46.03 46.54 46.24 45.07 44.47 45.35 46.84 48.82
50.18 50.42 50.31 50.36 50.61 50.74 50.64 50.47 50.74 50.84 50.15 50.32 50.19 47.21 45.59 45.13 38.64 40.81 39.16 40.85 40.12 42.26 44.18 43.22 41.28 42.53 41.67 40.69 38.16 37.53 34.92 33.48 38.58 35.43 30.82 34.65 37.70 41.92 43.64 44.69 45.58 46.20 46.89 47.11 46.95 46.96 46.82 46.91 47.14 45.76 45.45 46.03 46.28 46.13
50.59 50.81 50.53 50.15 50.29 50.33 50.29 50.29 50.55 49.30 51.72 49.08 46.12 36.98 41.22 40.22 42.54 42.47 43.86 46.18 47.48 45.12 44.03 42.47 41.68 41.55 40.64 38.85 38.25 35.74 37.29 36.84 33.13 28.97 33.60 37.57 39.89 42.79 44.56 44.65 45.08 45.49 46.21 45.33 45.08 46.44 45.72 45.83 45.76 46.05 45.66 45.26 45.71 44.66
51.03 50.70 50.94 51.60 51.42 50.88 50.36 50.10 50.19 48.88 50.99 48.74 46.74 39.54 43.10 45.54 46.10 49.22 49.93 47.18 46.10 46.24 45.58 43.24 42.35 42.01 39.82 39.45 39.31 37.96 37.09 35.61 35.22 33.45 36.40 40.75 42.34 43.96 43.15 43.58 43.12 43.62 42.62 40.84 41.35 42.69 44.32 44.91 44.13 44.06 43.57 43.57 44.15 43.85
51.43 50.94 50.89 51.90 51.55 51.34 51.10 49.74 47.89 50.57 50.37 48.73 46.81 44.21 46.40 45.64 45.75 47.31 47.21 47.39 46.41 44.71 44.73 43.72 40.96 39.81 40.05 39.33 37.94 37.51 37.06 35.22 37.00 38.76 40.45 43.35 42.98 43.57 43.64 44.36 44.50 42.65 40.56 40.11 41.12 44.00 43.67 42.98 41.74 40.81 41.63 42.10 42.52 42.41
50.60 50.15 51.03 50.79 51.01 50.77 50.27 50.67 51.38 49.79 48.70 46.31 43.88 46.10 46.39 45.35 45.45 46.47 48.31 48.02 44.72 45.63 42.05 41.72 40.74 39.94 41.10 37.94 37.48 39.75 37.73 39.18 42.50 44.59 46.06 47.03 45.54 45.34 46.00 46.30 44.53 41.96 39.98 40.15 39.51 39.23 39.88 41.08 40.66 40.34 39.42 40.51 40.84 41.86
50.26 51.04 51.49 51.09 50.32 50.96 50.41 48.92 49.77 50.24 46.96 45.66 43.04 43.89 46.64 47.17 46.62 47.68 49.25 50.07 46.37 43.99 43.82 43.28 44.33 39.61 38.60 37.33 37.18 41.26 44.46 45.93 48.13 48.87 48.86 48.63 48.24 48.92 49.18 46.81 44.10 40.57 40.16 39.62 38.42 39.75 40.12 40.01 39.29 39.66 39.48 40.03 39.82 39.32
50.25 50.06 50.79 51.35 50.47 48.45 48.23 49.40 48.44 45.05 47.32 46.43 46.28 47.06 47.35 48.09 49.10 50.06 50.16 49.82 47.46 45.98 46.38 43.24 42.60 39.64 40.33 42.90 45.64 47.02 46.76 47.62 47.33 49.38 49.60 49.71 49.33 48.92 48.22 44.89 43.46 39.52 39.86 38.92 38.57 39.77 40.16 39.63 40.13 40.42 40.34 39.62 39.00 39.46
50.40 50.63 50.66 51.36 50.89 47.34 47.53 48.23 50.48 46.84 45.13 47.13 47.59 47.19 47.65 48.65 49.97 49.50 48.99 48.23 46.19 46.11 44.90 44.05 41.90 44.93 47.01 49.01 49.66 49.71 49.05 50.97 49.66 47.44 47.20 48.24 49.28 49.59 45.70 43.74 41.95 39.26 39.17 38.71 39.59 40.61 40.16 40.08 40.13 40.26 41.06 40.75 39.19 39.95
49.90 49.90 51.06 48.78 46.56 46.35 45.74 45.97 48.18 48.62 49.07 48.20 49.53 49.83 49.69 50.43 49.67 49.69 48.64 49.48 47.70 47.10 46.24 47.80 49.38 51.83 51.81 52.39 53.22 51.31 50.16 50.92 49.36 49.72 48.16 47.74 49.69 48.53 45.32 43.79 40.52 39.83 39.44 38.27 39.54 39.54 40.11 39.11 40.35 40.84 40.95 41.13 41.36 41.17
48.53 51.93 47.64 47.81 46.61 47.89 46.06 47.74 46.65 48.81 47.87 48.42 47.96 49.64 47.96 47.54 48.13 48.45 50.28 47.80 47.76 49.11 49.82 49.80 48.93 48.48 49.18 49.35 51.10 50.37 50.80 51.70 49.07 46.90 47.03 46.38 46.02 44.83 44.29 42.89 41.26 40.60 40.29 39.82 39.61 40.66 40.29 39.96 41.07 40.95 40.33 38.95 40.00 38.68
50.23 49.55 48.04 48.86 46.25 42.47 42.42 48.89 47.06 47.95 44.29 46.15 49.93 47.62 47.06 47.48 49.13 51.08 48.19 47.58 47.96 50.30 50.48 50.61 50.31 49.83 49.40 49.87 48.69 48.04 48.52 47.67 46.61 48.42 47.13 45.60 45.47 45.91 45.91 43.52 42.33 42.41 40.62 39.45 40.30 40.88 40.61 40.58 40.81 40.61 39.97 39.85 39.61 39.36
50.15 47.16 45.94 45.45 44.99 39.98 45.89 45.61 47.97 47.83 47.39 46.41 46.41 45.02 46.37 49.13 50.65 48.06 45.40 45.87 48.30 49.66 49.53 50.07 50.08 45.71 44.62 44.37 44.78 44.81 47.73 46.62 47.41 47.10 48.48 48.23 44.82 45.35 45.82 44.46 42.88 42.35 43.47 41.45 39.57 40.25 40.51 41.39 41.00 40.23 39.95 41.15 40.57 39.48
42.00 41.36 40.70 35.12 44.32 45.55 44.67 45.61 46.06 45.66 44.47 46.61 46.24 45.40 46.68 48.44 45.68 45.87 44.87 47.11 47.65 49.73 50.32 50.67 50.53 45.80 43.63 43.85 45.33 47.19 48.06 48.31 46.47 46.51 46.47 46.79 45.27 40.64 41.00 40.48 40.12 40.97 42.06 41.08 39.39 39.87 39.43 40.11 40.47 40.95 41.10 40.12 39.94 40.94
37.86 45.08 40.08 43.41 43.77 43.22 43.54 44.79 45.83 45.01 45.47 45.12 47.34 49.10 49.74 47.65 45.75 43.23 45.09 47.22 49.61 50.45 50.04 48.77 49.02 47.82 44.67 45.60 46.11 45.42 48.09 48.40 47.15 45.67 44.50 45.45 43.58 42.08 39.79 39.17 38.39 38.98 40.67 43.16 41.54 40.81 40.24 39.66 40.62 41.69 41.51 42.07 40.05 41.10
39.80 42.91 45.54 47.38 45.85 46.40 44.92 45.65 47.55 46.29 44.57 43.13 46.29 47.18 45.12 42.51 43.15 45.81 48.78 50.57 50.93 49.92 47.74 47.62 49.52 49.32 48.19 47.28 47.92 49.21 48.92 45.52 44.81 44.73 43.25 41.78 43.64 42.98 43.79 41.13 39.76 42.36 42.27 43.45 43.59 43.09 42.45 41.49 41.78 42.28 41.68 41.43 41.76 41.34
44.17 45.04 43.52 45.12 44.71 46.83 45.07 45.36 44.73 43.15 45.40 46.84 47.84 45.27 43.95 43.73 43.53 47.43 49.68 51.34 51.58 47.42 46.85 46.41 45.98 45.56 45.40 46.09 48.69 47.05 41.09 40.31 40.89 40.51 41.22 41.56 39.29 40.25 41.22 41.04 40.61 40.42 43.97 44.87 44.68 43.58 43.02 42.44 42.40 42.34 42.21 41.51 41.25 41.12
44.36 46.15 44.95 43.27 45.36 47.19 45.56 45.61 45.97 48.16 49.97 48.59 45.71 45.05 46.87 48.91 50.10 50.43 51.18 48.05 46.51 45.38 44.43 44.33 45.05 45.68 45.68 45.40 45.61 43.84 40.79 40.58 40.90 39.03 38.43 37.11 37.90 39.57 39.27 39.87 40.01 40.75 41.40 41.90 40.53 42.63 43.43 42.92 42.54 42.19 42.93 42.12 41.63 41.23
42.96 45.80 43.44 44.34 43.67 43.07 46.05 48.70 49.58 51.77 51.83 50.24 49.67 49.33 47.99 48.38 51.50 52.60 49.55 46.79 45.39 45.09 44.84 45.02 44.74 45.34 44.33 43.86 43.22 42.13 39.33 39.79 40.76 40.97 39.04 39.71 40.13 40.37 39.96 40.13 40.01 39.55 40.26 41.00 40.48 39.70 39.48 39.85 39.08 39.35 39.56 39.27 39.35 39.49
45.06 44.37 43.69 43.76 43.52 45.63 47.88 49.30 51.47 51.43 51.04 50.90 51.15 49.19 50.26 49.87 51.32 52.12 50.78 47.74 46.70 45.73 45.39 43.79 42.27 42.96 43.22 42.08 40.87 40.24 39.47 40.80 40.83 42.13 42.23 41.90 40.95 41.68 41.09 41.09 40.63 39.92 39.98 40.26 39.80 40.21 39.39 39.45 39.88 39.28 39.23 39.08 40.24 39.75
44.35 43.94 43.52 42.47 43.60 46.88 48.05 48.34 49.15 48.39 48.41 47.80 47.99 50.17 51.16 50.04 47.06 47.70 48.57 48.05 46.58 45.04 43.48 43.48 43.41 43.64 44.38 43.62 41.88 41.70 41.08 42.83 42.61 42.76 42.78 43.06 43.79 43.40 42.75 41.51 41.08 41.18 41.21 41.57 41.36 41.20 40.48 39.56 39.68 40.42 40.50 40.43 41.03 42.16
45.71 46.75 47.84 47.09 44.80 46.59 49.25 48.79 47.30 45.25 46.51 45.86 46.83 49.71 50.94 49.34 46.08 48.46 49.42 49.08 47.76 45.66 44.36 45.21 45.44 45.05 45.06 45.14 44.58 43.59 42.41 43.47 41.92 40.64 40.64 40.91 41.37 41.60 41.50 40.67 41.96 43.05 42.41 41.64 41.54 41.93 42.17 41.15 39.94 40.80 41.25 41.98 41.41 40.94

GFSWCAN_sfc_wetblb_114.txt.gz
Wetbulb
52.18 52.68 53.24 54.07 54.37 54.55 54.64 54.90 54.98 55.12 55.24 55.55 55.95 54.64 54.78 54.98 55.79 51.18 50.39 50.82 47.07 43.34 44.22 47.31 47.43 43.31 42.40 39.54 37.70 39.75 40.16 40.80 38.01 34.56 33.91 32.94 31.94 34.48 31.20 33.86 33.04 31.48 28.84 28.13 28.11 28.30 30.06 44.90 46.38 40.27 42.61 48.93 52.96 54.16
52.80 52.88 53.44 53.70 53.97 54.24 54.58 54.76 54.90 54.92 54.94 55.26 55.62 54.32 54.95 54.76 55.43 53.72 49.18 52.48 50.41 46.49 46.47 47.91 48.61 49.02 47.19 46.22 41.65 40.05 40.32 39.88 41.68 37.05 36.03 36.28 35.25 34.93 32.58 29.30 36.72 32.40 34.80 34.53 33.06 32.82 40.45 43.95 45.12 48.43 49.09 49.99 51.99 51.69
52.87 53.05 53.45 53.78 54.08 54.40 54.36 54.46 54.62 54.80 54.77 55.06 55.54 53.76 54.36 54.35 54.94 52.47 49.05 49.59 48.10 45.48 46.36 46.83 46.63 50.78 50.62 49.18 47.06 42.90 41.63 43.77 40.98 42.46 38.80 37.10 34.43 35.71 31.51 33.89 35.36 38.09 38.98 37.54 38.45 40.60 42.46 44.23 47.37 48.98 49.37 49.74 51.50 51.83
52.46 53.04 53.64 54.10 54.21 54.30 54.14 54.05 54.46 54.62 54.63 54.78 55.01 53.50 54.07 53.96 54.22 52.48 48.90 49.14 49.37 45.05 42.04 44.12 50.66 48.61 50.60 49.01 49.47 46.75 45.53 44.16 42.92 40.43 36.75 35.71 35.26 38.13 34.50 35.73 35.66 39.04 39.05 36.99 37.14 40.64 42.62 44.81 45.46 47.46 49.47 50.90 51.12 51.81
52.26 53.05 53.69 53.66 53.82 53.74 53.53 53.85 54.17 54.33 54.57 54.88 53.96 53.37 53.45 53.82 53.16 49.56 48.38 48.73 49.85 47.41 41.44 42.16 45.78 47.89 47.04 47.60 47.75 47.21 45.61 43.35 41.21 40.54 38.80 37.34 37.23 37.67 36.75 36.92 34.89 39.14 38.29 36.76 37.17 41.33 40.73 42.09 45.16 47.99 48.72 49.27 50.00 49.99
52.31 53.04 53.35 53.38 53.40 53.46 53.53 53.67 53.99 53.97 54.27 55.10 52.60 52.75 52.93 53.16 52.51 50.56 46.84 50.28 50.05 49.79 44.46 40.10 44.47 45.20 47.54 47.55 46.36 44.90 43.96 42.86 41.45 40.48 37.87 38.38 39.29 37.44 33.61 32.90 38.73 41.07 42.50 42.14 41.08 43.59 43.38 45.33 46.85 47.29 47.00 48.59 49.37 49.41
52.59 53.37 53.10 53.19 53.50 53.64 53.60 53.68 53.51 53.80 54.72 52.06 51.83 51.97 52.42 52.10 49.34 49.46 47.02 50.04 50.21 50.22 44.59 40.44 40.97 45.79 47.61 46.19 44.92 43.58 42.65 40.49 40.69 37.24 37.03 36.86 36.83 37.17 33.62 29.57 39.35 42.32 42.90 44.93 45.26 45.27 43.49 45.69 44.35 46.90 47.06 48.40 49.38 48.15
52.89 52.92 52.76 53.08 53.20 53.00 53.20 53.36 53.93 53.86 51.85 51.49 51.68 52.27 52.32 52.00 51.48 49.99 51.01 51.35 51.27 49.03 45.41 39.79 40.19 42.38 45.27 42.54 41.26 42.30 40.83 39.62 38.74 36.79 36.76 35.89 35.48 33.64 30.44 36.30 39.24 41.56 42.89 44.07 44.79 44.52 43.96 44.89 46.01 46.82 47.01 46.88 45.67 44.86
53.13 52.70 52.72 52.88 53.37 53.88 53.95 52.39 51.76 51.54 51.37 51.73 52.40 52.75 51.30 50.73 49.35 49.52 55.79 53.06 51.79 49.50 43.80 40.89 38.58 37.53 44.27 40.38 40.85 41.05 39.75 36.44 38.00 35.93 36.20 36.59 34.93 28.06 33.71 35.01 38.07 41.33 42.76 43.16 44.76 44.45 44.84 44.40 44.24 45.63 46.29 45.64 44.73 45.15
52.64 53.20 53.28 53.38 52.45 51.52 51.33 51.52 51.67 51.69 51.59 52.09 50.72 50.31 47.88 49.74 55.51 54.54 49.79 46.07 46.84 47.22 46.01 42.23 41.79 40.08 42.08 39.30 38.83 38.59 37.16 34.15 29.83 35.20 38.54 34.69 33.11 37.39 38.19 36.98 39.63 42.36 44.11 44.21 41.96 39.99 41.72 42.06 43.69 43.99 44.47 45.63 45.44 46.00
51.65 51.40 51.45 51.42 51.56 51.27 51.42 51.54 51.48 51.67 52.21 49.97 49.51 47.37 50.25 53.77 50.60 47.56 44.20 41.76 42.53 41.56 42.57 42.80 41.53 40.58 43.36 39.74 38.08 38.39 35.18 34.13 30.32 33.50 34.93 30.38 31.81 37.14 41.74 40.97 39.16 41.94 44.13 44.78 44.51 43.39 43.86 44.11 44.39 45.05 45.37 47.21 46.82 46.71
50.78 50.75 50.64 50.78 51.10 51.18 51.06 50.81 50.60 47.87 45.77 46.59 47.69 48.46 49.59 47.41 44.09 41.99 41.23 41.86 41.60 40.67 40.88 41.24 41.37 41.57 40.87 41.35 39.43 38.17 34.73 34.92 31.12 37.63 35.33 28.92 35.33 38.95 41.66 43.05 41.88 41.57 44.47 45.90 45.85 45.74 45.23 46.33 46.22 45.60 44.81 45.46 47.12 47.55
50.87 50.17 50.25 50.25 50.37 50.63 50.55 50.46 50.70 50.89 49.82 49.83 49.36 46.26 44.65 43.46 37.06 39.86 37.99 39.75 39.38 41.44 41.81 41.39 40.73 41.40 40.21 39.71 37.90 36.71 34.55 33.23 37.95 34.72 30.77 34.50 37.86 40.47 41.49 43.42 44.37 43.39 44.68 46.45 46.84 46.70 46.60 46.69 47.78 46.69 45.71 46.11 46.83 47.10
51.18 50.95 50.88 51.42 51.24 50.55 50.33 50.31 50.63 49.86 51.30 48.45 45.43 36.21 40.02 38.68 41.20 41.54 41.85 42.20 44.86 43.23 42.49 41.55 40.11 40.28 39.09 37.93 36.80 34.62 36.20 35.94 32.43 28.85 33.15 37.29 38.87 42.52 43.29 45.62 45.71 45.55 46.37 47.10 46.99 47.06 47.08 46.75 47.05 47.32 47.58 47.24 47.01 46.13
51.23 51.48 50.85 51.29 51.89 51.49 50.50 50.35 50.10 48.79 50.71 47.71 46.90 39.81 41.99 44.23 44.64 45.82 46.85 46.13 45.91 44.59 43.53 42.28 41.25 40.93 38.68 38.23 38.13 37.07 35.71 34.64 34.52 33.34 36.09 38.92 41.00 42.04 44.15 44.57 44.74 45.72 44.76 43.28 43.85 43.80 45.99 46.42 45.52 44.32 44.31 44.04 44.87 45.11
51.58 51.01 50.93 51.97 51.82 51.31 50.84 50.14 48.06 50.23 49.80 48.24 47.11 44.06 45.17 45.14 45.02 45.75 47.04 45.84 45.70 43.49 43.04 42.73 40.12 39.09 39.09 38.57 37.45 36.00 35.70 34.50 36.81 39.03 40.68 43.92 43.32 44.49 43.27 44.16 44.45 43.86 41.64 42.32 41.92 43.17 44.80 44.48 42.67 41.93 42.50 43.02 43.03 43.61
50.92 50.90 50.83 50.90 51.12 50.57 50.30 50.67 51.56 48.55 46.92 46.59 44.00 45.29 45.15 44.94 45.09 45.39 46.99 48.42 45.60 43.87 40.99 41.04 39.45 39.32 39.91 36.85 36.54 38.66 37.15 38.46 40.37 43.34 46.26 45.45 46.26 44.93 44.64 45.76 43.76 43.04 42.28 41.89 41.03 40.60 40.39 41.48 41.64 41.21 40.73 41.93 42.06 42.78
50.32 51.24 51.30 51.03 50.34 50.80 49.45 47.90 50.32 49.97 47.36 46.47 42.30 41.91 44.74 46.32 45.17 45.53 46.75 45.51 45.91 43.82 42.70 41.61 43.88 39.52 38.63 37.53 37.52 40.97 42.65 45.11 46.94 47.44 48.66 48.26 47.02 47.20 48.25 47.54 45.79 43.15 42.56 41.05 39.68 40.45 40.78 41.03 40.53 40.92 41.06 41.73 41.51 41.28
50.39 50.69 51.13 51.08 50.55 48.45 48.05 48.57 47.11 43.24 46.55 47.29 45.13 45.80 45.57 46.30 46.85 47.55 48.03 49.22 48.01 44.99 44.22 43.40 42.57 38.61 39.26 41.82 44.65 44.43 46.40 46.86 47.50 48.80 50.02 48.17 48.82 48.81 48.44 47.51 43.25 40.50 40.41 38.63 39.89 40.49 40.62 41.43 42.11 42.03 42.08 41.49 41.41 41.32
51.11 51.00 51.11 51.05 50.84 46.38 46.02 46.52 48.69 44.55 43.14 46.02 45.90 45.88 45.84 46.46 47.90 48.48 47.95 47.77 45.42 44.13 41.57 40.87 40.19 41.79 44.10 48.16 49.52 50.32 49.71 49.97 49.08 47.80 47.58 48.65 49.36 49.16 47.13 45.33 41.41 40.10 39.04 38.74 39.86 40.55 40.96 41.42 42.10 42.56 42.91 41.72 41.61 42.30
49.53 49.78 50.97 48.82 46.82 45.44 44.80 44.36 45.17 46.46 46.36 45.91 48.29 49.33 49.44 48.26 48.50 48.22 48.50 48.15 45.97 44.18 42.62 44.07 46.22 50.31 49.42 51.35 52.51 51.74 49.90 49.01 49.40 48.60 47.61 46.81 49.02 49.69 46.99 43.43 40.13 39.38 39.16 39.49 40.13 40.22 40.49 40.85 42.11 42.56 42.70 43.14 43.23 43.10
48.45 51.18 46.64 47.00 45.49 47.13 46.64 45.76 44.36 46.34 44.39 46.22 46.56 48.85 46.59 46.13 46.79 47.63 49.09 47.66 46.54 46.88 48.26 48.80 48.64 48.96 48.69 48.68 49.22 50.10 50.52 49.94 50.46 48.96 46.26 47.30 47.29 45.34 44.31 42.75 40.96 40.18 40.05 40.29 41.16 40.97 41.20 40.96 41.93 42.30 42.52 41.90 41.59 41.61
50.30 49.39 47.13 47.18 45.86 43.34 42.03 47.22 45.14 46.40 43.32 43.62 48.13 46.75 46.25 46.57 47.88 50.36 46.75 46.88 46.90 48.07 48.86 49.38 49.50 49.40 49.15 48.45 48.70 50.05 51.60 48.95 46.48 47.32 47.75 46.38 46.41 46.34 45.89 43.92 43.42 42.36 40.79 40.42 40.90 41.56 41.82 40.47 41.68 42.31 42.80 41.99 41.92 41.82
49.72 46.47 44.74 43.92 43.28 39.52 44.64 43.30 45.91 45.41 45.74 45.39 44.78 44.32 45.83 47.76 50.41 48.95 47.22 46.97 47.74 48.65 48.10 48.64 48.87 46.18 45.99 46.22 45.78 45.87 45.38 45.29 45.12 46.78 47.91 45.29 44.60 44.80 46.01 46.42 45.43 45.04 44.43 42.31 41.99 41.89 42.03 42.01 41.13 42.13 41.71 42.91 42.55 41.70
43.38 41.95 40.68 35.07 43.58 45.60 43.20 43.76 44.16 44.84 43.42 45.00 45.17 45.24 46.15 47.00 44.35 45.83 45.33 45.96 46.90 48.01 48.85 49.77 49.65 46.19 45.31 43.99 43.67 45.01 47.79 46.55 45.85 46.82 47.91 47.35 45.15 42.78 43.42 44.18 43.93 44.07 42.88 41.55 40.83 41.63 41.94 42.27 42.58 42.57 41.85 42.42 42.59 42.93
36.16 43.26 39.03 42.02 42.27 41.28 42.20 43.34 45.26 43.61 43.97 43.53 45.35 47.24 47.43 45.99 44.38 43.11 44.78 46.54 47.61 48.96 49.09 48.38 48.69 47.44 44.22 44.15 43.97 45.60 47.53 47.71 46.75 46.26 45.91 46.19 46.38 45.46 43.26 42.37 41.96 42.27 42.20 43.71 42.49 42.36 42.21 42.47 42.89 43.10 42.57 42.52 39.66 42.73
38.51 43.51 44.43 45.39 44.41 44.56 43.63 46.07 48.19 44.92 43.39 42.42 44.82 45.76 44.01 41.62 41.98 45.16 47.51 48.96 49.49 49.73 48.13 47.36 49.09 48.90 46.86 44.34 46.61 48.04 46.33 46.53 46.83 46.14 44.70 45.46 46.04 45.62 44.95 44.01 42.96 43.89 42.96 43.94 44.20 43.97 43.23 42.64 42.69 43.28 43.38 43.91 43.85 44.13
45.13 43.86 41.60 43.73 44.04 45.12 43.60 43.74 44.30 42.93 44.32 46.66 47.43 44.57 43.58 43.23 42.84 47.23 48.88 50.60 50.81 47.07 46.42 45.61 44.76 45.73 45.66 47.18 48.56 43.81 40.51 40.36 40.71 40.34 40.26 40.86 40.40 41.33 42.38 42.55 42.89 39.99 44.05 45.12 45.12 44.87 44.64 43.90 43.40 43.76 43.91 43.74 44.18 44.49
43.73 45.85 44.71 42.58 43.70 44.78 45.02 43.88 45.12 47.54 49.29 47.79 45.74 45.09 46.13 48.42 49.54 49.68 50.71 49.05 47.13 46.73 45.16 44.74 45.43 45.59 45.41 45.42 44.21 40.82 40.83 40.91 42.18 41.29 41.37 40.13 40.77 42.38 41.43 42.01 41.76 42.36 43.19 43.83 40.74 43.36 45.39 44.84 44.82 44.59 45.25 45.01 45.05 44.25
42.98 45.30 42.80 43.12 42.77 42.55 45.05 47.40 48.29 50.63 50.94 49.97 49.92 48.88 48.30 48.04 51.64 52.13 47.75 46.33 45.92 45.85 45.08 44.63 44.52 45.42 44.63 44.62 44.08 41.59 40.69 40.60 41.32 41.99 40.47 40.66 41.52 42.56 41.97 42.16 42.08 41.97 42.37 43.44 43.26 42.17 39.71 42.89 40.94 43.12 43.13 43.11 43.15 43.10
43.97 43.09 42.83 42.85 42.41 44.63 46.94 48.51 50.65 50.56 50.43 49.71 50.83 48.04 46.88 48.55 49.50 52.16 49.19 47.35 45.59 45.15 44.67 44.20 43.89 43.93 44.48 44.08 43.37 43.10 41.97 42.48 41.46 42.31 42.90 42.80 42.48 42.56 42.73 42.66 42.40 41.80 42.35 42.84 42.44 42.36 42.22 42.16 42.27 42.27 42.12 42.22 42.95 41.76
43.67 43.52 43.13 41.71 42.29 45.84 48.58 48.82 48.68 47.66 47.09 46.91 46.99 48.61 49.45 50.25 47.47 47.26 48.36 47.43 46.54 45.74 44.89 44.43 43.86 44.71 45.63 45.44 44.59 44.01 41.55 44.02 42.84 43.27 44.08 42.46 42.86 43.87 43.78 42.70 42.21 42.77 42.91 42.79 42.86 42.84 43.36 43.16 42.51 42.45 42.36 42.62 42.79 43.76
43.63 43.25 43.84 44.07 43.30 45.70 48.15 47.72 45.75 44.69 45.32 45.04 45.65 48.43 50.23 49.13 46.59 48.54 49.35 49.09 48.81 47.87 46.11 45.21 45.53 45.17 44.77 44.46 45.10 45.01 41.78 44.78 43.76 39.97 39.85 40.02 40.48 41.36 43.17 42.74 43.05 43.76 43.81 43.36 43.37 43.43 43.32 42.91 41.93 42.16 43.13 43.18 43.55 44.29

GFSWCAN_sfc_wetblb_117.txt.gz
Wetbulb
52.53 52.81 53.19 53.95 54.11 54.42 54.66 54.80 55.02 54.98 55.23 55.33 55.52 55.51 54.79 54.73 55.55 54.68 56.31 56.18 54.00 51.47 51.49 51.92 51.59 49.83 48.93 48.65 47.22 47.49 47.81 48.82 48.10 44.57 43.69 42.72 43.48 44.52 42.95 43.45 43.17 41.96 41.53 40.82 39.35 38.36 35.65 50.13 51.10 46.18 50.94 54.08 55.98 58.43
52.33 52.54 53.40 53.79 54.26 54.54 54.58 54.72 54.94 54.88 55.06 54.94 55.47 55.62 54.90 54.72 55.25 54.70 56.21 56.84 55.23 54.33 52.70 53.50 54.53 54.40 52.52 52.11 50.62 48.89 48.69 48.38 49.90 46.49 45.69 46.11 44.49 44.64 42.17 41.60 44.58 41.71 44.53 44.27 43.31 43.81 48.44 50.66 51.14 54.68 55.19 54.90 57.08 58.86
52.80 52.83 52.91 53.61 54.14 54.46 54.60 54.74 54.54 54.78 54.90 54.80 55.29 55.42 54.40 54.37 54.80 53.78 56.00 55.05 55.46 54.00 53.41 54.40 52.63 55.40 56.13 54.16 53.81 50.61 50.43 50.64 49.36 50.77 48.61 47.19 43.22 45.75 43.37 43.74 44.02 45.31 46.00 47.29 45.92 48.29 49.63 50.93 52.93 54.72 54.79 54.77 55.96 58.33
52.69 52.42 53.07 53.60 54.07 54.16 54.50 54.46 54.05 54.54 54.66 54.72 55.27 54.85 54.07 53.98 54.05 53.02 55.28 54.51 54.71 52.87 50.04 50.97 54.91 53.66 54.75 55.16 54.40 52.75 51.99 50.68 50.38 49.96 48.19 46.95 45.21 45.72 44.51 44.15 45.18 47.53 46.66 45.86 45.69 48.02 49.46 50.66 52.12 52.51 54.80 56.13 56.67 56.60
52.03 52.42 53.21 53.63 53.89 53.78 53.77 53.95 53.97 54.28 54.72 54.66 55.09 53.72 53.41 53.80 53.10 54.15 55.06 54.68 56.12 54.26 49.55 50.13 52.23 53.51 53.55 53.78 53.18 53.42 52.72 51.81 50.93 49.22 48.80 47.23 47.26 46.40 46.35 45.46 45.17 47.93 47.35 46.68 47.31 48.97 49.57 49.75 51.69 52.85 54.35 54.97 56.14 56.07
51.94 52.76 53.53 53.63 53.40 53.52 53.78 53.84 53.87 54.22 54.38 54.54 54.64 52.63 52.85 52.98 52.67 56.81 53.75 56.55 56.03 55.26 52.62 47.62 51.82 52.12 53.16 53.67 52.18 51.02 50.82 50.25 50.34 49.97 47.88 47.19 45.83 46.16 44.56 44.21 46.70 48.33 48.91 50.23 49.86 50.46 50.41 50.71 51.78 52.35 52.93 54.14 54.64 55.82
52.19 53.09 53.38 53.26 53.48 53.76 53.56 53.72 53.96 53.85 53.99 54.62 52.04 51.89 52.21 52.08 54.85 55.68 52.09 54.51 52.76 56.81 52.86 48.26 48.76 52.27 52.60 52.60 52.36 51.41 50.02 48.10 49.34 47.14 47.10 47.30 46.12 46.23 44.87 43.10 46.59 49.31 50.28 50.11 50.96 51.64 49.84 50.73 50.36 52.10 52.30 52.56 53.45 54.18
52.55 53.23 53.05 53.07 53.31 53.52 53.27 53.24 53.40 53.97 53.72 51.77 51.68 52.07 52.20 52.18 52.93 55.05 55.87 53.04 54.88 54.54 52.97 47.47 47.86 49.39 52.27 50.81 49.85 49.93 49.72 48.96 46.48 45.80 45.82 45.62 44.28 43.89 42.08 46.53 46.78 49.07 49.86 50.43 50.53 50.54 51.21 51.89 52.16 52.14 52.61 52.23 51.76 53.25
52.54 53.00 53.28 53.34 53.85 53.10 53.28 52.84 52.06 51.52 51.64 51.69 52.44 52.79 55.14 55.74 55.05 54.83 55.12 54.98 57.63 56.01 50.53 49.16 46.94 45.40 51.15 48.66 49.30 48.98 48.56 45.76 45.99 45.89 45.76 45.56 42.38 37.15 44.68 46.41 46.22 48.74 49.67 50.87 50.84 50.68 50.77 50.07 50.21 50.94 51.22 50.97 50.98 51.21
51.97 51.84 51.90 51.70 51.67 51.44 51.61 51.73 51.77 51.88 51.76 52.00 54.14 54.52 52.63 54.01 55.96 55.86 54.80 52.12 53.67 53.74 52.95 50.38 49.64 47.58 50.25 48.10 46.99 47.59 46.45 44.48 43.41 44.22 46.12 43.86 43.62 47.20 47.52 46.60 47.40 50.32 50.78 51.63 49.54 47.79 48.51 48.71 49.63 50.20 50.44 51.56 51.68 51.76
51.24 51.43 51.36 51.39 51.55 51.44 51.38 51.27 51.21 51.68 52.36 54.50 54.26 51.83 54.67 54.23 55.47 52.58 49.21 48.08 48.86 47.93 50.58 50.76 50.05 47.89 50.13 47.27 46.73 46.91 44.81 43.93 40.13 42.41 43.45 42.82 41.43 46.01 49.17 49.18 47.93 49.64 51.68 51.89 50.93 50.64 50.84 50.89 50.76 50.68 50.96 51.92 52.23 52.28
51.20 50.67 50.83 51.10 51.15 50.97 51.06 50.81 50.77 51.43 51.75 51.54 52.33 52.39 54.45 52.34 49.68 47.83 46.43 47.43 47.16 45.87 48.20 48.44 48.70 49.85 48.57 49.70 47.95 45.87 43.43 42.87 37.80 44.76 42.77 40.23 45.39 48.95 48.87 49.58 48.96 49.70 51.20 51.30 51.65 51.44 51.15 51.29 52.00 52.04 51.90 51.87 52.64 53.07
51.43 51.32 51.20 51.46 51.45 51.26 50.67 50.49 50.57 50.81 51.15 53.98 53.46 50.76 49.77 47.74 40.29 42.84 41.25 44.50 45.14 48.12 47.52 47.72 47.07 49.49 46.96 48.69 46.08 45.47 41.44 40.97 45.01 42.09 41.34 43.92 48.31 48.59 49.13 50.33 49.90 49.93 50.81 51.66 51.79 52.31 51.96 51.71 52.37 52.45 52.31 52.56 52.48 52.83
51.17 51.82 51.88 51.58 51.44 52.11 51.42 50.40 50.51 51.39 53.87 52.15 48.82 39.50 44.20 43.36 44.48 45.80 46.61 48.18 50.71 49.81 48.53 49.40 47.25 48.55 47.63 46.05 45.57 41.33 43.73 43.33 38.88 37.39 39.59 47.01 47.97 48.86 49.56 50.03 50.07 49.36 48.99 50.35 51.28 52.09 51.62 52.07 51.97 51.12 50.12 50.89 50.63 50.36
51.45 51.33 51.87 51.67 51.93 52.36 51.59 50.83 50.53 51.96 53.88 50.84 50.21 40.85 44.81 48.08 48.40 49.77 50.90 50.64 51.40 51.09 48.96 47.81 47.34 49.21 46.60 44.99 45.73 43.67 40.60 38.80 40.73 40.89 45.53 47.89 49.36 49.33 49.09 49.26 49.63 50.12 49.84 50.31 51.56 51.54 51.68 51.42 50.25 49.78 50.10 50.22 50.53 50.84
51.70 51.57 51.23 51.80 51.81 51.43 50.61 51.02 51.02 53.73 52.76 50.55 50.26 48.21 49.24 48.43 48.92 49.44 50.32 50.82 51.74 49.54 49.40 50.80 46.91 45.89 45.11 46.12 42.82 41.65 40.15 39.71 44.54 47.50 48.60 49.73 49.47 50.55 49.42 48.96 49.46 51.10 50.82 50.29 50.10 50.06 49.17 49.00 48.43 48.45 49.42 49.88 49.66 48.99
51.28 50.85 51.15 50.75 50.96 50.78 50.41 51.25 52.12 49.44 47.92 47.57 46.51 50.49 49.41 48.62 48.84 51.00 51.47 52.16 51.34 49.35 48.01 48.79 44.98 44.49 46.04 44.25 42.34 45.42 43.71 47.62 49.45 49.10 50.40 50.74 50.81 49.15 49.48 49.52 49.13 48.60 48.46 48.59 47.96 47.91 47.27 48.78 49.26 49.04 47.78 48.91 48.96 49.16
50.12 51.79 51.21 51.02 51.18 51.86 51.92 51.14 51.12 48.64 46.01 48.53 46.02 47.00 48.17 50.09 49.75 50.10 51.18 50.60 50.42 49.97 49.15 47.94 49.27 44.76 44.39 42.50 44.08 48.54 48.95 50.43 51.05 51.95 50.23 49.45 49.80 50.48 50.51 49.41 47.68 47.28 45.95 46.71 47.57 48.19 48.65 48.45 47.62 48.72 49.17 49.34 48.92 48.38
50.96 51.32 51.65 51.19 51.19 50.50 50.06 50.60 49.92 45.81 47.41 50.41 50.23 49.44 48.75 49.58 51.32 52.36 52.68 52.96 52.80 52.31 50.28 48.91 46.47 45.99 46.91 49.30 50.46 51.13 51.42 51.24 51.97 51.35 53.04 53.10 51.54 48.95 50.56 49.66 46.38 46.89 47.70 47.24 48.15 48.12 48.11 48.90 48.24 48.53 48.97 49.13 48.56 49.24
51.50 51.46 51.24 51.43 51.16 48.05 46.45 49.07 52.21 48.23 47.14 49.06 50.48 48.87 49.46 50.66 52.45 52.57 52.46 52.13 49.42 49.32 47.43 46.64 48.02 50.19 50.52 52.96 53.30 54.47 54.42 55.14 53.45 52.16 51.02 51.76 51.24 51.42 49.89 46.61 47.09 48.75 47.52 47.05 48.20 45.50 48.10 47.88 49.01 49.34 49.49 48.65 48.80 48.03
50.35 50.92 51.36 51.30 48.89 48.24 47.27 48.24 49.15 50.24 51.02 49.74 52.34 51.39 51.95 52.31 50.91 51.25 52.05 52.85 50.49 49.58 48.98 51.74 52.50 54.31 55.25 56.70 56.93 57.01 55.97 55.18 54.25 54.12 52.87 49.82 51.92 52.44 47.76 49.89 49.60 48.34 47.10 46.69 46.96 46.93 45.47 47.77 48.91 49.60 49.53 49.43 49.76 50.28
50.31 51.41 50.55 50.29 48.87 48.94 47.15 49.82 47.91 50.31 48.76 50.42 50.28 52.20 50.47 50.15 50.91 52.12 53.29 51.98 52.37 55.11 54.29 54.78 54.68 55.33 55.04 54.77 55.22 55.58 55.75 55.42 55.46 52.69 48.39 49.61 50.52 50.20 48.09 49.54 48.83 47.87 47.96 47.89 48.45 48.14 48.07 48.57 49.63 49.58 49.19 49.26 46.89 48.97
50.74 51.12 50.69 49.39 46.11 43.99 43.35 50.99 48.72 50.03 46.61 48.08 51.33 50.17 50.49 50.71 51.98 53.28 51.80 53.12 53.76 54.35 54.92 55.25 55.28 55.38 54.99 54.01 53.65 54.46 55.24 55.23 53.44 53.16 51.95 52.17 52.32 52.51 52.39 51.16 50.50 49.48 48.46 48.52 49.20 49.22 49.03 45.38 46.22 48.69 49.48 48.47 48.66 48.46
49.89 48.99 46.98 46.16 43.80 40.37 48.03 46.93 49.40 48.61 49.46 48.59 48.28 47.21 49.26 51.41 53.75 51.79 50.43 52.03 53.76 54.72 54.51 54.80 54.12 51.83 51.43 51.98 53.03 53.70 53.83 53.43 53.50 53.25 53.25 52.08 51.52 51.95 52.88 52.66 51.74 51.70 51.77 51.58 49.14 49.18 49.58 48.54 45.95 48.35 48.73 48.54 48.45 48.46
43.46 43.07 43.49 36.42 46.99 45.82 45.43 46.40 46.69 47.57 46.34 48.52 47.48 48.34 49.39 51.28 48.71 48.80 48.93 50.69 51.98 53.20 54.26 54.38 53.88 52.56 52.37 51.08 50.38 50.22 50.83 52.45 52.16 51.84 51.70 53.15 52.31 51.58 51.46 52.41 52.56 52.56 52.05 50.67 49.36 48.85 48.78 48.94 48.46 48.52 48.37 48.24 47.94 47.47
38.18 44.43 40.13 44.02 44.22 43.45 45.01 43.94 45.07 45.68 46.64 46.55 47.99 50.43 51.29 50.01 46.87 46.35 49.80 52.48 53.15 53.66 53.32 52.96 53.04 51.66 49.69 51.32 49.93 50.60 51.73 53.27 53.42 52.06 52.91 53.46 52.97 52.15 51.72 50.98 50.95 51.24 51.52 52.44 51.38 49.50 48.99 48.65 48.40 48.34 48.20 47.03 41.19 46.90
38.75 43.04 47.17 49.70 48.09 47.69 46.11 47.92 48.80 46.87 45.49 45.24 48.27 48.64 47.73 43.92 44.61 49.86 53.15 54.29 53.64 53.38 52.72 52.40 53.25 53.37 52.99 50.92 51.98 53.00 51.86 53.91 53.93 53.22 52.58 53.59 53.85 54.24 54.12 52.24 51.34 52.97 52.16 51.89 51.63 50.83 49.85 49.09 48.79 48.98 48.55 48.79 48.96 48.69
45.85 46.63 43.78 46.52 46.87 48.22 45.33 46.11 45.79 45.78 47.20 50.01 49.95 46.39 45.30 45.79 46.91 52.60 53.61 54.73 52.84 51.75 50.78 49.86 50.51 53.83 53.32 52.84 52.36 51.41 50.56 50.95 50.38 49.74 49.43 49.66 50.94 52.06 52.09 52.79 52.34 41.40 51.15 52.01 51.91 51.92 51.26 50.37 49.72 49.39 48.77 48.30 48.89 49.87
45.07 48.00 47.09 44.67 46.29 47.24 47.42 46.97 48.11 51.39 52.67 51.10 49.32 48.09 49.57 53.06 54.22 54.22 54.78 54.77 51.94 52.09 51.61 51.12 50.56 51.99 51.88 51.37 50.38 50.20 49.63 49.54 49.07 48.01 47.36 47.30 48.67 48.93 49.77 50.01 49.59 49.94 50.75 50.35 41.69 47.42 51.16 50.47 50.46 50.04 49.83 49.66 50.28 50.68
45.55 48.20 46.28 45.93 45.18 45.52 49.26 51.47 51.79 53.79 54.55 53.70 53.23 53.07 53.15 53.66 55.91 56.22 52.69 51.77 51.78 51.75 51.74 52.28 52.16 52.64 51.14 50.48 48.70 48.51 49.52 49.82 50.17 49.60 48.05 47.94 49.18 50.58 50.46 50.08 49.74 49.57 50.01 50.58 50.18 48.54 40.38 47.58 44.82 49.42 48.65 49.43 49.41 49.20
48.24 47.24 45.97 46.26 45.81 48.89 50.94 52.31 53.52 54.21 54.10 53.42 53.70 51.87 51.15 53.38 54.76 56.66 53.97 53.39 52.30 51.90 51.66 51.04 50.94 51.84 51.82 51.60 50.79 49.62 48.80 50.41 49.88 49.87 50.12 50.76 51.02 50.78 50.84 50.37 50.20 49.76 49.79 50.27 50.17 49.90 49.63 49.03 49.38 49.10 48.82 48.62 48.70 46.66
46.98 46.16 45.57 44.68 46.71 50.31 51.42 50.98 52.20 51.85 51.31 51.36 51.71 53.65 53.96 52.86 50.57 53.16 54.23 52.60 51.86 51.65 48.63 51.17 52.12 52.23 53.20 53.39 53.76 53.89 43.48 53.05 52.59 51.77 51.21 49.77 49.94 50.68 50.80 50.24 50.00 49.88 49.51 49.36 49.24 49.30 49.48 49.16 48.73 48.49 48.16 48.18 48.20 47.59
47.03 47.23 47.65 47.54 47.29 47.88 51.48 51.47 50.31 49.48 50.50 50.42 50.84 52.24 52.69 50.69 49.33 53.33 54.19 54.44 54.96 55.15 54.28 54.02 54.41 53.87 52.58 51.75 51.85 52.42 46.18 52.11 49.05 41.20 41.15 41.39 42.47 45.68 49.75 49.68 49.55 49.86 49.30 48.86 48.86 48.98 48.60 48.42 48.12 48.25 48.23 47.99 48.34 48.36

GFSWCAN_sfc_wetblb_123.txt.gz
Wetbulb
54.73 53.62 53.58 53.64 53.81 53.91 54.15 54.70 55.19 55.29 55.47 55.66 55.79 55.57 55.55 56.05 55.52 56.18 63.94 66.00 62.32 57.76 57.51 57.82 57.80 56.26 56.18 55.47 50.30 54.57 51.59 53.37 51.49 48.56 48.15 48.99 47.65 48.02 48.20 49.22 47.31 46.68 45.66 45.35 46.66 43.57 40.65 55.20 53.28 49.07 56.58 58.80 58.97 59.59
53.48 53.09 53.26 53.50 53.57 53.73 54.10 54.65 55.15 55.17 55.31 55.56 55.66 55.78 55.79 56.27 55.17 55.11 61.71 65.07 65.21 60.76 58.34 60.89 60.02 59.73 58.31 56.99 53.93 55.64 53.08 54.13 53.61 50.32 52.12 51.27 49.00 48.78 47.64 43.77 52.18 45.41 48.72 46.41 47.71 47.64 55.83 56.11 56.98 58.81 59.76 59.01 60.14 60.39
52.81 53.14 53.37 53.28 53.32 53.59 54.30 54.71 55.11 54.91 55.23 55.31 55.58 55.39 55.87 56.11 54.94 54.67 62.30 64.85 62.81 58.34 57.76 57.98 57.29 59.08 59.48 58.77 59.02 53.49 56.94 57.14 56.27 57.57 52.96 52.27 47.57 50.32 45.58 46.66 48.31 50.67 53.87 49.44 50.14 52.61 53.73 55.99 58.35 59.22 59.63 59.45 61.48 62.36
52.77 52.99 52.87 53.00 53.33 53.90 54.47 54.61 54.42 54.70 54.89 54.91 55.44 55.51 55.96 55.32 54.33 54.18 62.18 64.53 63.14 59.17 54.38 56.34 60.31 57.92 59.54 59.46 58.85 58.55 58.76 59.96 57.92 55.99 52.32 51.09 49.19 54.20 48.00 50.82 50.31 51.79 49.61 50.48 49.96 52.56 53.64 55.39 57.24 58.22 59.33 60.49 61.52 62.74
52.56 52.54 52.77 53.11 53.58 54.17 53.98 54.12 54.42 54.40 54.58 54.76 55.25 55.48 55.73 54.49 53.62 56.74 63.60 64.94 64.98 60.01 54.05 55.38 58.10 58.42 59.09 58.89 57.29 58.35 58.24 56.91 55.13 52.81 51.27 49.76 54.34 52.45 50.52 50.66 48.88 52.39 51.47 48.58 47.87 53.41 55.17 55.40 57.96 58.53 58.09 58.89 60.57 61.21
52.37 52.55 52.74 53.35 53.79 53.84 53.86 54.04 54.36 54.36 54.34 54.60 54.81 55.45 54.55 53.42 53.54 61.86 58.12 62.97 65.09 63.74 57.46 50.98 58.85 57.37 58.00 58.30 56.41 56.66 58.94 56.81 55.66 54.33 54.06 55.73 55.55 51.53 47.25 47.22 51.99 53.49 55.16 56.40 54.76 53.70 56.27 58.82 58.30 58.12 57.89 58.31 59.52 60.93
52.27 52.42 52.92 53.57 54.05 53.76 54.05 53.95 54.04 54.24 54.38 54.48 54.74 54.38 52.72 52.57 56.28 58.43 56.44 59.75 55.87 64.74 56.15 52.88 53.44 57.41 58.44 58.36 57.84 57.04 56.45 57.07 54.75 55.77 53.93 53.13 54.56 51.53 48.81 46.63 52.08 53.56 55.05 55.88 57.49 57.09 55.78 56.94 56.33 58.14 58.39 59.11 58.85 59.79
52.17 52.30 52.47 52.50 52.59 52.66 53.63 53.69 53.73 53.99 54.09 54.62 53.70 52.20 52.42 52.67 54.10 56.87 61.06 57.12 59.58 59.74 57.97 52.60 53.41 54.41 58.28 54.95 54.71 58.39 55.50 55.29 53.76 53.17 54.82 50.87 53.65 52.51 48.02 51.88 53.58 54.83 55.55 56.06 56.39 57.27 57.72 58.60 58.44 58.01 58.36 58.77 58.08 57.82
52.13 52.11 52.08 52.06 52.30 52.33 52.16 51.68 52.18 53.75 53.54 51.99 51.91 52.86 57.64 57.42 55.25 58.59 56.81 56.53 64.66 60.95 53.51 52.69 50.88 49.67 57.76 56.12 58.41 55.99 56.12 51.52 55.32 50.23 51.89 53.34 49.58 45.96 49.85 52.06 53.02 54.45 55.27 55.27 56.37 56.50 56.16 56.14 56.26 56.76 56.91 56.92 56.74 56.65
52.18 51.88 51.77 51.65 51.79 51.96 51.85 51.90 52.36 52.24 51.80 52.05 54.59 56.30 53.17 57.77 55.88 56.90 57.65 56.61 57.10 57.26 58.04 53.97 55.12 52.17 54.66 54.62 53.46 55.19 54.62 53.27 49.20 51.77 54.28 48.93 48.39 54.21 54.19 54.53 54.70 54.87 56.30 56.61 54.81 53.82 54.64 54.48 55.02 55.55 55.64 56.97 57.05 57.48
51.92 52.03 51.57 51.47 51.89 52.43 51.95 51.59 52.05 51.96 51.35 56.80 56.44 56.61 59.78 54.77 58.34 56.64 52.79 51.98 53.54 51.72 54.86 54.19 54.66 52.60 56.78 52.11 52.44 55.69 53.80 52.92 46.97 49.93 48.82 50.40 49.56 52.99 54.78 55.15 55.57 55.06 56.73 56.82 57.23 56.60 56.57 55.49 55.15 54.85 55.14 55.88 56.33 56.39
52.04 51.80 52.04 51.79 51.86 52.62 52.58 51.49 51.11 52.98 58.49 55.39 58.00 59.35 58.75 56.10 54.61 50.71 49.88 52.07 51.32 49.61 53.56 52.77 53.60 55.03 55.08 58.60 54.42 53.67 50.48 51.44 45.34 52.15 48.55 48.22 52.49 55.31 54.49 54.67 55.09 55.19 55.95 55.56 55.99 54.39 53.56 53.83 54.30 54.16 54.27 54.18 55.31 55.96
51.99 51.66 51.66 52.18 52.28 52.41 52.48 51.58 51.02 51.21 52.77 58.33 56.99 53.90 53.42 52.68 43.97 45.45 44.44 47.64 48.65 52.24 53.82 53.81 51.93 54.76 55.56 55.22 54.54 53.08 47.34 47.62 53.40 47.45 48.29 49.67 55.74 55.79 56.18 55.42 54.95 55.48 56.01 56.00 54.52 54.92 54.92 54.69 55.12 54.80 54.44 55.03 55.17 55.16
51.67 51.92 51.77 52.00 52.26 52.52 52.79 51.93 51.70 52.57 54.55 53.87 50.66 41.95 47.72 46.34 47.20 48.26 49.79 51.43 54.75 55.08 54.83 54.44 52.61 52.42 54.39 51.92 53.41 47.74 52.20 51.92 45.61 44.70 46.58 52.94 56.49 56.71 56.81 56.21 55.00 54.26 55.38 55.31 54.50 55.16 54.98 55.29 55.55 56.26 55.95 57.22 56.09 55.01
51.07 51.64 51.90 52.14 52.47 52.59 52.31 51.61 51.49 53.32 55.00 50.16 50.23 44.47 47.17 50.69 52.79 53.45 55.14 56.56 56.63 56.78 54.76 53.56 53.25 53.96 51.68 50.68 52.01 50.43 46.63 44.29 46.70 47.34 52.35 55.67 57.73 57.45 56.71 56.10 55.08 54.87 54.57 53.86 54.47 54.11 55.03 55.38 55.65 56.28 56.25 56.83 56.31 56.58
51.18 51.49 53.75 52.69 52.49 52.14 51.14 52.73 53.51 53.67 52.63 50.54 50.18 48.56 51.12 50.02 50.46 52.66 53.68 54.36 57.02 55.99 56.06 54.94 51.60 49.87 49.31 50.61 48.10 46.71 45.78 45.14 50.29 53.86 55.19 58.41 58.44 58.57 58.02 57.51 57.45 56.71 56.01 54.65 54.56 54.14 55.43 56.25 55.69 55.39 55.97 55.48 55.19 53.67
51.02 52.76 51.51 51.10 51.05 50.99 50.87 54.36 54.31 50.25 49.45 48.15 47.07 50.08 50.41 52.23 52.70 52.46 54.81 54.98 58.36 54.95 51.48 52.26 47.87 47.85 52.87 49.21 47.39 50.85 48.65 51.78 56.59 55.46 57.17 59.72 59.67 59.27 59.19 58.62 58.21 57.83 57.12 56.09 56.14 55.36 52.33 52.17 52.84 53.62 52.78 52.33 53.39 53.88
53.31 52.59 51.90 51.41 51.73 52.38 53.01 53.15 49.95 47.93 45.27 48.24 47.71 49.67 51.82 52.85 52.50 55.14 57.27 58.30 57.18 55.13 54.22 51.15 53.33 49.01 47.95 46.73 47.95 52.43 54.28 56.57 58.48 59.12 57.73 59.90 60.40 60.45 59.11 57.87 57.47 57.13 56.59 55.81 52.01 50.64 51.87 52.50 51.52 49.87 52.76 53.42 53.04 53.25
52.88 52.79 52.25 52.21 51.72 50.93 49.22 48.82 50.59 45.20 47.76 49.97 51.12 51.98 53.01 53.23 53.78 54.99 56.33 58.31 59.09 59.29 55.80 54.22 50.71 49.63 50.52 53.13 54.01 55.69 56.96 56.77 56.27 59.21 60.79 61.16 60.51 58.65 57.39 56.99 57.39 55.16 54.33 53.30 52.99 51.46 50.23 52.55 52.77 52.78 52.41 52.32 52.71 53.52
51.72 52.02 52.06 52.35 51.29 51.06 48.98 50.03 53.28 49.69 47.51 50.04 52.61 51.58 52.26 52.51 53.62 53.67 54.96 56.71 57.31 56.25 53.55 50.56 52.04 53.07 55.42 54.35 58.83 58.80 59.08 59.63 58.42 57.47 57.90 57.84 57.51 56.88 56.20 55.40 54.56 54.46 52.15 51.15 50.04 47.80 52.23 51.60 52.11 52.09 52.66 52.93 52.24 51.26
50.42 51.99 51.18 51.88 51.97 52.28 50.62 51.33 52.06 53.13 53.56 52.47 55.23 53.26 51.06 54.22 53.15 52.41 52.98 55.33 53.58 53.44 52.80 55.38 55.51 58.03 61.79 59.99 60.80 60.86 61.69 60.95 59.08 59.92 59.08 56.04 57.25 55.79 55.15 54.61 54.09 52.65 48.06 51.72 51.95 50.83 49.61 51.21 51.73 52.38 51.02 51.92 52.65 52.34
51.67 51.77 51.92 52.89 49.58 49.04 48.89 53.76 52.52 54.01 52.73 52.07 52.26 53.55 50.90 49.92 51.35 52.76 55.58 52.23 50.98 52.85 55.47 56.11 56.90 57.47 58.55 61.45 61.42 62.38 62.20 61.82 61.56 57.70 53.81 54.45 56.04 54.00 53.43 53.99 52.83 51.50 52.88 52.48 52.25 51.47 51.99 52.30 52.25 52.23 51.91 51.94 50.82 51.91
50.64 52.52 53.68 52.58 48.90 47.00 46.62 55.27 50.16 51.49 47.94 50.01 52.12 50.04 49.91 50.30 52.00 56.95 52.59 53.74 54.48 56.68 56.42 56.90 60.94 63.15 62.62 62.52 62.31 61.77 61.61 60.37 59.08 60.87 57.55 57.70 57.14 55.77 55.05 53.81 53.74 52.53 52.49 52.67 53.55 52.90 52.26 48.86 50.60 51.66 52.21 52.56 51.34 51.04
50.73 51.55 49.27 48.47 48.97 44.69 51.85 49.38 52.57 51.28 50.61 49.43 49.58 48.65 49.69 53.40 57.09 54.53 51.65 55.09 58.19 60.38 59.86 61.07 61.37 59.66 60.34 60.66 59.57 60.98 59.99 60.43 59.45 57.98 57.23 56.06 54.44 54.70 55.09 54.00 53.98 53.95 53.66 54.05 53.46 53.26 52.78 52.94 49.64 51.36 51.46 50.79 50.27 49.73
43.31 44.23 47.07 40.65 50.04 47.54 46.84 48.22 49.03 49.02 47.36 48.49 48.64 49.37 52.50 56.10 51.58 49.66 49.08 53.30 57.56 59.21 60.87 60.15 60.05 59.44 59.01 59.04 60.52 60.95 60.42 59.33 56.57 54.87 55.45 56.66 56.09 55.94 54.35 54.48 55.03 55.11 54.97 53.53 52.50 52.34 52.25 53.37 52.26 51.33 50.75 50.34 50.11 49.82
38.20 44.80 41.51 47.05 47.32 47.09 46.65 45.39 46.84 47.42 49.83 48.27 49.98 53.93 54.37 50.58 46.13 45.54 51.54 54.16 57.49 57.67 58.11 58.78 58.56 58.46 57.48 57.75 56.24 55.99 57.19 58.07 57.20 54.62 55.28 56.27 55.21 54.43 53.10 51.92 51.04 52.15 55.99 55.26 53.58 52.75 52.66 53.00 52.74 51.54 50.86 49.76 45.02 49.34
39.13 44.49 49.39 52.78 51.57 51.37 50.36 50.86 51.57 50.86 48.64 48.00 52.23 50.16 49.08 44.86 45.58 51.49 57.21 58.62 57.57 58.08 58.61 59.01 58.70 57.70 56.82 56.97 57.44 57.52 58.26 58.36 56.63 55.49 57.90 57.03 56.88 57.27 55.95 53.96 53.60 55.27 56.39 56.41 54.70 53.94 53.40 53.10 51.86 51.40 51.14 50.98 51.33 50.56
47.85 49.43 46.40 50.07 50.33 50.32 47.81 49.27 48.77 47.96 50.89 54.51 53.11 47.20 46.26 48.06 49.81 56.85 57.68 57.55 56.95 57.00 57.71 58.40 58.35 58.35 58.16 57.96 57.04 56.79 57.16 57.41 58.43 57.67 57.44 57.22 57.87 57.01 57.99 57.28 58.44 45.58 56.37 56.11 54.70 55.37 55.07 54.09 52.66 51.98 51.37 50.57 51.03 52.08
48.54 51.31 49.94 47.31 48.85 50.11 50.48 50.24 50.46 54.73 55.63 54.97 52.11 51.16 52.06 57.00 58.44 56.49 56.65 56.63 58.59 58.45 56.68 56.03 57.08 58.37 57.79 57.67 58.22 57.61 57.31 56.26 54.29 52.87 52.26 51.86 52.76 53.96 57.33 57.09 56.70 57.00 56.61 55.94 45.20 48.08 55.22 54.13 53.51 52.97 52.16 51.54 51.85 52.28
48.49 50.84 48.45 48.65 47.91 48.18 52.96 54.54 54.07 55.95 55.96 56.52 57.44 56.50 56.29 58.31 60.58 59.42 57.41 57.17 55.94 56.02 57.16 57.65 57.38 56.62 55.74 55.42 54.37 54.72 56.04 56.36 55.58 53.82 52.48 52.09 52.48 54.06 54.73 55.40 55.99 55.82 56.17 55.87 55.59 54.19 42.83 51.15 49.06 52.32 50.92 51.27 51.24 51.07
50.83 50.40 48.21 49.08 48.16 51.07 52.94 55.30 56.93 57.20 56.20 55.22 57.08 55.30 55.05 56.63 58.60 58.73 57.95 59.23 56.50 55.92 56.43 57.39 56.39 56.21 55.17 53.99 53.54 52.74 52.34 55.06 55.03 55.28 54.46 54.83 54.99 54.83 55.63 55.58 56.68 56.24 54.57 54.33 54.85 54.12 52.86 51.64 51.47 50.64 49.93 50.12 50.50 49.49
50.56 49.36 49.00 47.31 49.38 53.93 55.49 54.94 53.99 53.51 54.60 54.61 54.78 56.46 56.45 54.64 51.86 55.30 58.10 57.73 56.78 55.51 51.27 53.93 54.18 54.68 56.25 55.08 55.22 55.04 43.89 54.94 55.08 55.23 55.05 55.04 56.68 56.46 55.96 55.99 55.85 55.35 54.46 53.25 53.76 53.50 52.87 51.85 51.31 51.08 50.02 51.22 51.27 51.48
50.52 50.78 50.94 50.38 49.66 50.93 53.46 52.71 52.30 52.02 53.93 53.66 54.20 55.21 54.05 52.97 50.65 55.30 59.38 59.34 58.49 57.88 56.27 57.17 57.48 56.62 56.91 56.50 57.40 55.99 51.01 56.59 49.58 42.16 45.68 44.83 44.49 49.06 55.66 55.20 54.72 54.72 53.11 53.16 53.17 53.17 52.65 52.28 51.84 51.80 51.57 51.25 51.49 51.56